Observation data for Rotan on 07/17/2019      Previous  Date  Next       Current Mesonet Observations  Soil Data  Daily Summary Page  Observations in Plain Language
KRO1 170500Z 15008KT 29/19 A2999 RMK A01 T02870185  RH  054%=      5-min Rain = 0
KRO1 170501Z 15008KT 29/18 A2999 RMK A01 T02870184  RH  054%=      5-min Rain = 0
KRO1 170502Z 15008KT 29/19 A2999 RMK A01 T02870185  RH  054%=      5-min Rain = 0
KRO1 170503Z 15008KT 29/19 A2999 RMK A01 T02870185  RH  054%=      5-min Rain = 0
KRO1 170504Z 15008KT 29/18 A2999 RMK A01 T02870184  RH  054%=      5-min Rain = 0
KRO1 170505Z 15008KT 29/19 A2999 RMK A01 T02880185  RH  054%=      5-min Rain = 0
KRO1 170506Z 15007KT 29/19 A2999 RMK A01 T02880185  RH  054%=      5-min Rain = 0
KRO1 170507Z 15008KT 29/19 A2999 RMK A01 T02870185  RH  054%=      5-min Rain = 0
KRO1 170508Z 15008KT 29/19 A2999 RMK A01 T02870185  RH  054%=      5-min Rain = 0
KRO1 170509Z 15007KT 29/19 A2999 RMK A01 T02870185  RH  054%=      5-min Rain = 0
KRO1 170510Z 15007KT 29/19 A2999 RMK A01 T02860185  RH  054%=      5-min Rain = 0
KRO1 170511Z 15007KT 29/19 A2999 RMK A01 T02860185  RH  055%=      5-min Rain = 0
KRO1 170512Z 15008KT 29/19 A2999 RMK A01 T02850185  RH  055%=      5-min Rain = 0
KRO1 170513Z 15007KT 29/19 A2999 RMK A01 T02860185  RH  055%=      5-min Rain = 0
KRO1 170514Z 15007KT 29/19 A2999 RMK A01 T02850185  RH  055%=      5-min Rain = 0
KRO1 170515Z 15007KT 29/19 A2999 RMK A01 T02850185  RH  055%=      5-min Rain = 0
KRO1 170516Z 15007KT 28/19 A2999 RMK A01 T02840185  RH  055%=      5-min Rain = 0
KRO1 170517Z 15007KT 28/19 A2999 RMK A01 T02840186  RH  055%=      5-min Rain = 0
KRO1 170518Z 15008KT 28/19 A2999 RMK A01 T02840185  RH  055%=      5-min Rain = 0
KRO1 170519Z 15008KT 28/19 A2999 RMK A01 T02840185  RH  055%=      5-min Rain = 0
KRO1 170520Z 15008KT 28/19 A2999 RMK A01 T02830185  RH  055%=      5-min Rain = 0
KRO1 170521Z 15008KT 28/19 A2999 RMK A01 T02830186  RH  056%=      5-min Rain = 0
KRO1 170522Z 15008KT 28/19 A2999 RMK A01 T02830185  RH  056%=      5-min Rain = 0
KRO1 170523Z 15008KT 28/19 A2999 RMK A01 T02830185  RH  056%=      5-min Rain = 0
KRO1 170524Z 15008KT 28/19 A2999 RMK A01 T02820186  RH  056%=      5-min Rain = 0
KRO1 170525Z 15008KT 28/19 A2999 RMK A01 T02820185  RH  056%=      5-min Rain = 0
KRO1 170526Z 15008KT 28/19 A2999 RMK A01 T02830186  RH  056%=      5-min Rain = 0
KRO1 170527Z 16008KT 28/19 A2999 RMK A01 T02820186  RH  056%=      5-min Rain = 0
KRO1 170528Z 15008KT 28/19 A2999 RMK A01 T02820185  RH  056%=      5-min Rain = 0
KRO1 170529Z 15008KT 28/19 A2999 RMK A01 T02820185  RH  056%=      5-min Rain = 0
KRO1 170530Z 16008KT 28/19 A2999 RMK A01 T02820185  RH  056%=      5-min Rain = 0
KRO1 170531Z 15008KT 28/19 A2999 RMK A01 T02820185  RH  056%=      5-min Rain = 0
KRO1 170532Z 16008KT 28/19 A2999 RMK A01 T02810185  RH  056%=      5-min Rain = 0
KRO1 170533Z 16008KT 28/19 A2999 RMK A01 T02810185  RH  056%=      5-min Rain = 0
KRO1 170534Z 16008KT 28/19 A2999 RMK A01 T02810185  RH  056%=      5-min Rain = 0
KRO1 170535Z 16009KT 28/19 A2999 RMK A01 T02810185  RH  056%=      5-min Rain = 0
KRO1 170536Z 16008KT 28/19 A2999 RMK A01 T02810185  RH  056%=      5-min Rain = 0
KRO1 170537Z 16009KT 28/19 A2999 RMK A01 T02810185  RH  056%=      5-min Rain = 0
KRO1 170538Z 16008KT 28/18 A2999 RMK A01 T02810184  RH  056%=      5-min Rain = 0
KRO1 170539Z 16009KT 28/18 A2999 RMK A01 T02810184  RH  056%=      5-min Rain = 0
KRO1 170540Z 16009KT 28/18 A2999 RMK A01 T02810184  RH  056%=      5-min Rain = 0
KRO1 170541Z 16009KT 28/18 A2999 RMK A01 T02810184  RH  056%=      5-min Rain = 0
KRO1 170542Z 16009KT 28/18 A2999 RMK A01 T02810184  RH  056%=      5-min Rain = 0
KRO1 170543Z 16010KT 28/18 A2999 RMK A01 T02810184  RH  056%=      5-min Rain = 0
KRO1 170544Z 16010KT 28/18 A2999 RMK A01 T02810184  RH  055%=      5-min Rain = 0
KRO1 170545Z 16010KT 28/18 A2999 RMK A01 T02820184  RH  055%=      5-min Rain = 0
KRO1 170546Z 16011KT 28/18 A2999 RMK A01 T02820184  RH  055%=      5-min Rain = 0
KRO1 170547Z 16011KT 28/18 A2999 RMK A01 T02830184  RH  055%=      5-min Rain = 0
KRO1 170548Z 16011KT 28/18 A2999 RMK A01 T02830184  RH  055%=      5-min Rain = 0
KRO1 170549Z 16011KT 28/18 A2999 RMK A01 T02830184  RH  055%=      5-min Rain = 0
KRO1 170550Z 16012KT 28/18 A2999 RMK A01 T02830184  RH  055%=      5-min Rain = 0
KRO1 170551Z 16012KT 28/18 A2998 RMK A01 T02830184  RH  055%=      5-min Rain = 0
KRO1 170552Z 16012KT 28/18 A2998 RMK A01 T02830184  RH  055%=      5-min Rain = 0
KRO1 170553Z 16011KT 28/18 A2998 RMK A01 T02830184  RH  055%=      5-min Rain = 0
KRO1 170554Z 16012KT 28/19 A2998 RMK A01 T02840185  RH  055%=      5-min Rain = 0
KRO1 170555Z 16011KT 28/18 A2998 RMK A01 T02840184  RH  055%=      5-min Rain = 0
KRO1 170556Z 16011KT 28/19 A2998 RMK A01 T02840185  RH  055%=      5-min Rain = 0
KRO1 170557Z 16011KT 28/19 A2998 RMK A01 T02840185  RH  055%=      5-min Rain = 0
KRO1 170558Z 16011KT 28/19 A2998 RMK A01 T02830185  RH  055%=      5-min Rain = 0
KRO1 170559Z 16012KT 28/19 A2998 RMK A01 T02830185  RH  055%=      5-min Rain = 0
KRO1 170600Z 16011KT 28/19 A2998 RMK A01 T02830185  RH  055%=      5-min Rain = 0
KRO1 170601Z 16011KT 28/19 A2998 RMK A01 T02830185  RH  055%=      5-min Rain = 0
KRO1 170602Z 16010KT 28/19 A2998 RMK A01 T02820185  RH  055%=      5-min Rain = 0
KRO1 170603Z 16011KT 28/19 A2998 RMK A01 T02820185  RH  056%=      5-min Rain = 0
KRO1 170604Z 16010KT 28/19 A2998 RMK A01 T02830185  RH  056%=      5-min Rain = 0
KRO1 170605Z 16011KT 28/19 A2998 RMK A01 T02820185  RH  056%=      5-min Rain = 0
KRO1 170606Z 16012KT 28/19 A2998 RMK A01 T02820185  RH  056%=      5-min Rain = 0
KRO1 170607Z 15011KT 28/19 A2998 RMK A01 T02820185  RH  055%=      5-min Rain = 0
KRO1 170608Z 16011KT 28/19 A2998 RMK A01 T02820185  RH  055%=      5-min Rain = 0
KRO1 170609Z 16012KT 28/19 A2998 RMK A01 T02830185  RH  055%=      5-min Rain = 0
KRO1 170610Z 16011G16KT 28/19 A2998 RMK A01 T02830186  RH  055%=      5-min Rain = 0
KRO1 170611Z 16013KT 28/19 A2998 RMK A01 T02840185  RH  055%=      5-min Rain = 0
KRO1 170612Z 16011KT 29/19 A2998 RMK A01 T02850186  RH  055%=      5-min Rain = 0
KRO1 170613Z 16011KT 29/19 A2998 RMK A01 T02850186  RH  055%=      5-min Rain = 0
KRO1 170614Z 16010KT 29/19 A2998 RMK A01 T02850186  RH  055%=      5-min Rain = 0
KRO1 170615Z 16013KT 29/19 A2998 RMK A01 T02850186  RH  055%=      5-min Rain = 0
KRO1 170616Z 16013KT 29/19 A2998 RMK A01 T02850186  RH  055%=      5-min Rain = 0
KRO1 170617Z 16012KT 29/19 A2998 RMK A01 T02850186  RH  055%=      5-min Rain = 0
KRO1 170618Z 16011KT 29/19 A2998 RMK A01 T02850186  RH  055%=      5-min Rain = 0
KRO1 170619Z 16012KT 29/19 A2998 RMK A01 T02850186  RH  055%=      5-min Rain = 0
KRO1 170620Z 16012KT 29/19 A2998 RMK A01 T02850186  RH  055%=      5-min Rain = 0
KRO1 170621Z 16011KT 29/19 A2998 RMK A01 T02850186  RH  055%=      5-min Rain = 0
KRO1 170622Z 16012KT 29/19 A2998 RMK A01 T02850186  RH  055%=      5-min Rain = 0
KRO1 170623Z 16013KT 29/19 A2998 RMK A01 T02850186  RH  055%=      5-min Rain = 0
KRO1 170624Z 16012KT 29/19 A2998 RMK A01 T02850186  RH  055%=      5-min Rain = 0
KRO1 170625Z 16012KT 29/19 A2998 RMK A01 T02850186  RH  055%=      5-min Rain = 0
KRO1 170626Z 16012KT 29/19 A2998 RMK A01 T02860187  RH  055%=      5-min Rain = 0
KRO1 170627Z 16012KT 29/19 A2998 RMK A01 T02850187  RH  055%=      5-min Rain = 0
KRO1 170628Z 16012KT 29/19 A2998 RMK A01 T02860187  RH  055%=      5-min Rain = 0
KRO1 170629Z 16012KT 29/19 A2998 RMK A01 T02850187  RH  055%=      5-min Rain = 0
KRO1 170630Z 16011KT 29/19 A2998 RMK A01 T02850187  RH  055%=      5-min Rain = 0
KRO1 170631Z 16011KT 29/19 A2998 RMK A01 T02850187  RH  055%=      5-min Rain = 0
KRO1 170632Z 16011KT 29/19 A2998 RMK A01 T02850187  RH  056%=      5-min Rain = 0
KRO1 170633Z 16011KT 29/19 A2998 RMK A01 T02850188  RH  056%=      5-min Rain = 0
KRO1 170634Z 16009KT 28/19 A2998 RMK A01 T02840188  RH  056%=      5-min Rain = 0
KRO1 170635Z 17009KT 28/19 A2999 RMK A01 T02830187  RH  056%=      5-min Rain = 0
KRO1 170636Z 16010KT 28/19 A2999 RMK A01 T02830188  RH  056%=      5-min Rain = 0
KRO1 170637Z 16010KT 28/19 A2999 RMK A01 T02830188  RH  056%=      5-min Rain = 0
KRO1 170638Z 16009KT 28/19 A2999 RMK A01 T02820188  RH  056%=      5-min Rain = 0
KRO1 170639Z 17009KT 28/19 A2999 RMK A01 T02820188  RH  057%=      5-min Rain = 0
KRO1 170640Z 16009KT 28/19 A2999 RMK A01 T02820188  RH  057%=      5-min Rain = 0
KRO1 170641Z 16010KT 28/19 A2999 RMK A01 T02820188  RH  057%=      5-min Rain = 0
KRO1 170642Z 16010KT 28/19 A2999 RMK A01 T02810187  RH  057%=      5-min Rain = 0
KRO1 170643Z 16010KT 28/19 A2999 RMK A01 T02820188  RH  057%=      5-min Rain = 0
KRO1 170644Z 16010KT 28/19 A2999 RMK A01 T02810187  RH  057%=      5-min Rain = 0
KRO1 170645Z 16010KT 28/19 A2999 RMK A01 T02820187  RH  056%=      5-min Rain = 0
KRO1 170646Z 16009KT 28/19 A2999 RMK A01 T02820188  RH  057%=      5-min Rain = 0
KRO1 170647Z 16009KT 28/19 A2999 RMK A01 T02810188  RH  057%=      5-min Rain = 0
KRO1 170648Z 17010KT 28/19 A2999 RMK A01 T02810188  RH  057%=      5-min Rain = 0
KRO1 170649Z 16010KT 28/19 A2999 RMK A01 T02810188  RH  057%=      5-min Rain = 0
KRO1 170650Z 17010KT 28/19 A2998 RMK A01 T02810188  RH  057%=      5-min Rain = 0
KRO1 170651Z 16010KT 28/19 A2998 RMK A01 T02810188  RH  057%=      5-min Rain = 0
KRO1 170652Z 17010KT 28/19 A2998 RMK A01 T02810188  RH  057%=      5-min Rain = 0
KRO1 170653Z 17011KT 28/19 A2998 RMK A01 T02800188  RH  057%=      5-min Rain = 0
KRO1 170654Z 17010KT 28/19 A2998 RMK A01 T02800188  RH  057%=      5-min Rain = 0
KRO1 170655Z 16009KT 28/19 A2998 RMK A01 T02800188  RH  057%=      5-min Rain = 0
KRO1 170656Z 16010KT 28/19 A2998 RMK A01 T02800188  RH  058%=      5-min Rain = 0
KRO1 170657Z 17010KT 28/19 A2998 RMK A01 T02790188  RH  058%=      5-min Rain = 0
KRO1 170658Z 16010KT 28/19 A2998 RMK A01 T02790188  RH  058%=      5-min Rain = 0
KRO1 170659Z 17010KT 28/19 A2998 RMK A01 T02790188  RH  058%=      5-min Rain = 0
KRO1 170700Z 16010KT 28/19 A2998 RMK A01 T02790188  RH  058%=      5-min Rain = 0
KRO1 170701Z 16011KT 28/19 A2998 RMK A01 T02790188  RH  058%=      5-min Rain = 0
KRO1 170702Z 16010KT 28/19 A2998 RMK A01 T02790188  RH  058%=      5-min Rain = 0
KRO1 170703Z 17011KT 28/19 A2998 RMK A01 T02790188  RH  058%=      5-min Rain = 0
KRO1 170704Z 17010KT 28/19 A2998 RMK A01 T02790188  RH  058%=      5-min Rain = 0
KRO1 170705Z 16010KT 28/19 A2998 RMK A01 T02780188  RH  058%=      5-min Rain = 0
KRO1 170706Z 17010KT 28/19 A2998 RMK A01 T02780189  RH  058%=      5-min Rain = 0
KRO1 170707Z 17010KT 28/19 A2998 RMK A01 T02780188  RH  058%=      5-min Rain = 0
KRO1 170708Z 17012KT 28/19 A2998 RMK A01 T02780188  RH  058%=      5-min Rain = 0
KRO1 170709Z 17012KT 28/19 A2998 RMK A01 T02780188  RH  058%=      5-min Rain = 0
KRO1 170710Z 17012KT 28/19 A2998 RMK A01 T02790188  RH  058%=      5-min Rain = 0
KRO1 170711Z 17013KT 28/19 A2998 RMK A01 T02790188  RH  058%=      5-min Rain = 0
KRO1 170712Z 17011KT 28/19 A2998 RMK A01 T02790188  RH  058%=      5-min Rain = 0
KRO1 170713Z 17010KT 28/19 A2998 RMK A01 T02790188  RH  058%=      5-min Rain = 0
KRO1 170714Z 17012KT 28/19 A2998 RMK A01 T02790189  RH  058%=      5-min Rain = 0
KRO1 170715Z 16011KT 28/19 A2998 RMK A01 T02790188  RH  058%=      5-min Rain = 0
KRO1 170716Z 16011KT 28/19 A2998 RMK A01 T02790189  RH  058%=      5-min Rain = 0
KRO1 170717Z 16011KT 28/19 A2998 RMK A01 T02780189  RH  058%=      5-min Rain = 0
KRO1 170718Z 16011KT 28/19 A2998 RMK A01 T02780189  RH  058%=      5-min Rain = 0
KRO1 170719Z 16012KT 28/19 A2998 RMK A01 T02780189  RH  058%=      5-min Rain = 0
KRO1 170720Z 16011KT 28/19 A2998 RMK A01 T02780188  RH  058%=      5-min Rain = 0
KRO1 170721Z 16012KT 28/19 A2998 RMK A01 T02780189  RH  058%=      5-min Rain = 0
KRO1 170722Z 17011KT 28/19 A2998 RMK A01 T02780189  RH  058%=      5-min Rain = 0
KRO1 170723Z 16011KT 28/19 A2998 RMK A01 T02780189  RH  058%=      5-min Rain = 0
KRO1 170724Z 16011KT 28/19 A2998 RMK A01 T02770189  RH  058%=      5-min Rain = 0
KRO1 170725Z 16012KT 28/19 A2998 RMK A01 T02770189  RH  059%=      5-min Rain = 0
KRO1 170726Z 16012KT 28/19 A2998 RMK A01 T02780189  RH  059%=      5-min Rain = 0
KRO1 170727Z 16012KT 28/19 A2998 RMK A01 T02770189  RH  059%=      5-min Rain = 0
KRO1 170728Z 16013KT 28/19 A2998 RMK A01 T02770189  RH  059%=      5-min Rain = 0
KRO1 170729Z 16011KT 28/19 A2998 RMK A01 T02770189  RH  059%=      5-min Rain = 0
KRO1 170730Z 16012KT 28/19 A2998 RMK A01 T02770189  RH  059%=      5-min Rain = 0
KRO1 170731Z 16012KT 28/19 A2998 RMK A01 T02770189  RH  059%=      5-min Rain = 0
KRO1 170732Z 16011KT 28/19 A2998 RMK A01 T02770189  RH  059%=      5-min Rain = 0
KRO1 170733Z 16012KT 28/19 A2998 RMK A01 T02770189  RH  059%=      5-min Rain = 0
KRO1 170734Z 16013KT 28/19 A2998 RMK A01 T02770189  RH  059%=      5-min Rain = 0
KRO1 170735Z 16012KT 28/19 A2998 RMK A01 T02770189  RH  059%=      5-min Rain = 0
KRO1 170736Z 16011KT 28/19 A2998 RMK A01 T02770189  RH  059%=      5-min Rain = 0
KRO1 170737Z 16011KT 28/19 A2998 RMK A01 T02770189  RH  059%=      5-min Rain = 0
KRO1 170738Z 16012KT 28/19 A2998 RMK A01 T02770189  RH  059%=      5-min Rain = 0
KRO1 170739Z 16012KT 28/19 A2998 RMK A01 T02770189  RH  059%=      5-min Rain = 0
KRO1 170740Z 16012KT 28/19 A2998 RMK A01 T02760189  RH  059%=      5-min Rain = 0
KRO1 170741Z 16012KT 28/19 A2998 RMK A01 T02760190  RH  059%=      5-min Rain = 0
KRO1 170742Z 16013KT 28/19 A2998 RMK A01 T02760190  RH  059%=      5-min Rain = 0
KRO1 170743Z 16011KT 28/19 A2998 RMK A01 T02760190  RH  059%=      5-min Rain = 0
KRO1 170744Z 16012KT 28/19 A2998 RMK A01 T02760190  RH  059%=      5-min Rain = 0
KRO1 170745Z 16013KT 28/19 A2998 RMK A01 T02760190  RH  059%=      5-min Rain = 0
KRO1 170746Z 16011KT 28/19 A2998 RMK A01 T02760190  RH  059%=      5-min Rain = 0
KRO1 170747Z 16012KT 28/19 A2998 RMK A01 T02760190  RH  060%=      5-min Rain = 0
KRO1 170748Z 16012KT 28/19 A2998 RMK A01 T02760190  RH  060%=      5-min Rain = 0
KRO1 170749Z 16013KT 28/19 A2998 RMK A01 T02750190  RH  060%=      5-min Rain = 0
KRO1 170750Z 17012KT 28/19 A2998 RMK A01 T02750189  RH  060%=      5-min Rain = 0
KRO1 170751Z 16012KT 28/19 A2998 RMK A01 T02760190  RH  060%=      5-min Rain = 0
KRO1 170752Z 16011KT 28/19 A2998 RMK A01 T02750190  RH  059%=      5-min Rain = 0
KRO1 170753Z 17011KT 28/19 A2998 RMK A01 T02750190  RH  060%=      5-min Rain = 0
KRO1 170754Z 16012KT 28/19 A2998 RMK A01 T02750190  RH  060%=      5-min Rain = 0
KRO1 170755Z 16011KT 28/19 A2998 RMK A01 T02750190  RH  060%=      5-min Rain = 0
KRO1 170756Z 17012KT 28/19 A2998 RMK A01 T02750190  RH  060%=      5-min Rain = 0
KRO1 170757Z 17012KT 28/19 A2998 RMK A01 T02750190  RH  060%=      5-min Rain = 0
KRO1 170758Z 16011KT 28/19 A2998 RMK A01 T02750190  RH  060%=      5-min Rain = 0
KRO1 170759Z 16011KT 28/19 A2998 RMK A01 T02750190  RH  060%=      5-min Rain = 0
KRO1 170800Z 16011KT 27/19 A2998 RMK A01 T02740190  RH  060%=      5-min Rain = 0
KRO1 170801Z 16011KT 27/19 A2998 RMK A01 T02740191  RH  060%=      5-min Rain = 0
KRO1 170802Z 17011KT 27/19 A2998 RMK A01 T02730190  RH  060%=      5-min Rain = 0
KRO1 170803Z 17011KT 27/19 A2998 RMK A01 T02740191  RH  060%=      5-min Rain = 0
KRO1 170804Z 16011KT 27/19 A2998 RMK A01 T02730191  RH  061%=      5-min Rain = 0
KRO1 170805Z 17011KT 27/19 A2998 RMK A01 T02730190  RH  061%=      5-min Rain = 0
KRO1 170806Z 16011KT 27/19 A2998 RMK A01 T02730191  RH  061%=      5-min Rain = 0
KRO1 170807Z 16012KT 27/19 A2998 RMK A01 T02730191  RH  061%=      5-min Rain = 0
KRO1 170808Z 17011KT 27/19 A2998 RMK A01 T02730191  RH  061%=      5-min Rain = 0
KRO1 170809Z 16010KT 27/19 A2998 RMK A01 T02730191  RH  061%=      5-min Rain = 0
KRO1 170810Z 17010KT 27/19 A2998 RMK A01 T02730191  RH  061%=      5-min Rain = 0
KRO1 170811Z 17010KT 27/19 A2998 RMK A01 T02730191  RH  061%=      5-min Rain = 0
KRO1 170812Z 16010KT 27/19 A2998 RMK A01 T02720191  RH  061%=      5-min Rain = 0
KRO1 170813Z 17010KT 27/19 A2998 RMK A01 T02720191  RH  061%=      5-min Rain = 0
KRO1 170814Z 17009KT 27/19 A2998 RMK A01 T02720191  RH  061%=      5-min Rain = 0
KRO1 170815Z 17009KT 27/19 A2998 RMK A01 T02710191  RH  061%=      5-min Rain = 0
KRO1 170816Z 17009KT 27/19 A2998 RMK A01 T02710191  RH  061%=      5-min Rain = 0
KRO1 170817Z 17010KT 27/19 A2998 RMK A01 T02710191  RH  062%=      5-min Rain = 0
KRO1 170818Z 17008KT 27/19 A2998 RMK A01 T02700191  RH  062%=      5-min Rain = 0
KRO1 170819Z 17009KT 27/19 A2998 RMK A01 T02710191  RH  062%=      5-min Rain = 0
KRO1 170820Z 17009KT 27/19 A2998 RMK A01 T02710191  RH  062%=      5-min Rain = 0
KRO1 170821Z 17009KT 27/19 A2998 RMK A01 T02700191  RH  062%=      5-min Rain = 0
KRO1 170822Z 16009KT 27/19 A2998 RMK A01 T02700191  RH  062%=      5-min Rain = 0
KRO1 170823Z 17009KT 27/19 A2998 RMK A01 T02700191  RH  062%=      5-min Rain = 0
KRO1 170824Z 17008KT 27/19 A2998 RMK A01 T02700191  RH  062%=      5-min Rain = 0
KRO1 170825Z 16008KT 27/19 A2998 RMK A01 T02690191  RH  062%=      5-min Rain = 0
KRO1 170826Z 17008KT 27/19 A2998 RMK A01 T02690191  RH  062%=      5-min Rain = 0
KRO1 170827Z 17008KT 27/19 A2998 RMK A01 T02680191  RH  063%=      5-min Rain = 0
KRO1 170828Z 17008KT 27/19 A2998 RMK A01 T02680191  RH  063%=      5-min Rain = 0
KRO1 170829Z 16008KT 27/19 A2998 RMK A01 T02680191  RH  063%=      5-min Rain = 0
KRO1 170830Z 17008KT 27/19 A2998 RMK A01 T02680191  RH  063%=      5-min Rain = 0
KRO1 170831Z 17008KT 27/19 A2998 RMK A01 T02680191  RH  063%=      5-min Rain = 0
KRO1 170832Z 17010KT 27/19 A2998 RMK A01 T02680191  RH  063%=      5-min Rain = 0
KRO1 170833Z 17010KT 27/19 A2998 RMK A01 T02680190  RH  062%=      5-min Rain = 0
KRO1 170834Z 17011KT 27/19 A2998 RMK A01 T02690190  RH  062%=      5-min Rain = 0
KRO1 170835Z 17010KT 27/19 A2998 RMK A01 T02700191  RH  062%=      5-min Rain = 0
KRO1 170836Z 17011KT 27/19 A2998 RMK A01 T02700191  RH  062%=      5-min Rain = 0
KRO1 170837Z 17010KT 27/19 A2998 RMK A01 T02700191  RH  062%=      5-min Rain = 0
KRO1 170838Z 18013KT 27/19 A2998 RMK A01 T02700191  RH  062%=      5-min Rain = 0
KRO1 170839Z 17011KT 27/19 A2998 RMK A01 T02710191  RH  062%=      5-min Rain = 0
KRO1 170840Z 17011KT 27/19 A2998 RMK A01 T02720192  RH  062%=      5-min Rain = 0
KRO1 170841Z 18013KT 27/19 A2998 RMK A01 T02710191  RH  062%=      5-min Rain = 0
KRO1 170842Z 18012KT 27/19 A2998 RMK A01 T02720192  RH  062%=      5-min Rain = 0
KRO1 170843Z 18012KT 27/19 A2998 RMK A01 T02720191  RH  062%=      5-min Rain = 0
KRO1 170844Z 17013KT 27/19 A2998 RMK A01 T02720192  RH  062%=      5-min Rain = 0
KRO1 170845Z 18013KT 27/19 A2998 RMK A01 T02720192  RH  061%=      5-min Rain = 0
KRO1 170846Z 18012KT 27/19 A2998 RMK A01 T02720192  RH  062%=      5-min Rain = 0
KRO1 170847Z 18013KT 27/19 A2998 RMK A01 T02720192  RH  062%=      5-min Rain = 0
KRO1 170848Z 18013KT 27/19 A2998 RMK A01 T02720193  RH  062%=      5-min Rain = 0
KRO1 170849Z 18014KT 27/19 A2998 RMK A01 T02720192  RH  062%=      5-min Rain = 0
KRO1 170850Z 18013KT 27/19 A2998 RMK A01 T02720192  RH  062%=      5-min Rain = 0
KRO1 170851Z 18014KT 27/19 A2998 RMK A01 T02720192  RH  062%=      5-min Rain = 0
KRO1 170852Z 18014KT 27/19 A2998 RMK A01 T02720192  RH  062%=      5-min Rain = 0
KRO1 170853Z 18013KT 27/19 A2998 RMK A01 T02720192  RH  062%=      5-min Rain = 0
KRO1 170854Z 18015KT 27/19 A2998 RMK A01 T02720193  RH  062%=      5-min Rain = 0
KRO1 170855Z 18014KT 27/19 A2998 RMK A01 T02720193  RH  062%=      5-min Rain = 0
KRO1 170856Z 18014KT 27/19 A2998 RMK A01 T02720192  RH  062%=      5-min Rain = 0
KRO1 170857Z 18014KT 27/19 A2998 RMK A01 T02720193  RH  062%=      5-min Rain = 0
KRO1 170858Z 17012KT 27/19 A2998 RMK A01 T02720193  RH  062%=      5-min Rain = 0
KRO1 170859Z 17014KT 27/19 A2998 RMK A01 T02720193  RH  062%=      5-min Rain = 0
KRO1 170900Z 17014KT 27/19 A2998 RMK A01 T02710193  RH  062%=      5-min Rain = 0
KRO1 170901Z 17013KT 27/19 A2998 RMK A01 T02710193  RH  062%=      5-min Rain = 0
KRO1 170902Z 17013KT 27/19 A2998 RMK A01 T02710193  RH  062%=      5-min Rain = 0
KRO1 170903Z 18013KT 27/19 A2998 RMK A01 T02710193  RH  062%=      5-min Rain = 0
KRO1 170904Z 17013KT 27/19 A2998 RMK A01 T02710193  RH  063%=      5-min Rain = 0
KRO1 170905Z 17014KT 27/19 A2998 RMK A01 T02700193  RH  063%=      5-min Rain = 0
KRO1 170906Z 18012KT 27/19 A2998 RMK A01 T02700193  RH  063%=      5-min Rain = 0
KRO1 170907Z 18012KT 27/19 A2998 RMK A01 T02710193  RH  063%=      5-min Rain = 0
KRO1 170908Z 18013KT 27/19 A2998 RMK A01 T02700193  RH  063%=      5-min Rain = 0
KRO1 170909Z 18013KT 27/19 A2998 RMK A01 T02700193  RH  063%=      5-min Rain = 0
KRO1 170910Z 18012KT 27/19 A2998 RMK A01 T02700194  RH  063%=      5-min Rain = 0
KRO1 170911Z 18013KT 27/19 A2998 RMK A01 T02700194  RH  063%=      5-min Rain = 0
KRO1 170912Z 18012KT 27/19 A2998 RMK A01 T02700194  RH  063%=      5-min Rain = 0
KRO1 170913Z 18012KT 27/19 A2998 RMK A01 T02700194  RH  063%=      5-min Rain = 0
KRO1 170914Z 17012KT 27/19 A2998 RMK A01 T02700194  RH  063%=      5-min Rain = 0
KRO1 170915Z 18012KT 27/19 A2998 RMK A01 T02690194  RH  063%=      5-min Rain = 0
KRO1 170916Z 17013KT 27/19 A2998 RMK A01 T02690194  RH  063%=      5-min Rain = 0
KRO1 170917Z 18014KT 27/19 A2998 RMK A01 T02690194  RH  063%=      5-min Rain = 0
KRO1 170918Z 17012KT 27/19 A2998 RMK A01 T02690194  RH  063%=      5-min Rain = 0
KRO1 170919Z 18013KT 27/19 A2998 RMK A01 T02690194  RH  063%=      5-min Rain = 0
KRO1 170920Z 18013KT 27/19 A2998 RMK A01 T02690194  RH  064%=      5-min Rain = 0
KRO1 170921Z 18012KT 27/19 A2998 RMK A01 T02690194  RH  064%=      5-min Rain = 0
KRO1 170922Z 17012KT 27/19 A2998 RMK A01 T02690194  RH  064%=      5-min Rain = 0
KRO1 170923Z 18012KT 27/19 A2998 RMK A01 T02690194  RH  064%=      5-min Rain = 0
KRO1 170924Z 18012KT 27/19 A2998 RMK A01 T02680194  RH  064%=      5-min Rain = 0
KRO1 170925Z 18013KT 27/19 A2998 RMK A01 T02680194  RH  064%=      5-min Rain = 0
KRO1 170926Z 18012KT 27/19 A2998 RMK A01 T02680194  RH  064%=      5-min Rain = 0
KRO1 170927Z 18011KT 27/19 A2998 RMK A01 T02680194  RH  064%=      5-min Rain = 0
KRO1 170928Z 18013KT 27/20 A2998 RMK A01 T02680195  RH  064%=      5-min Rain = 0
KRO1 170929Z 18013KT 27/20 A2998 RMK A01 T02680195  RH  064%=      5-min Rain = 0
KRO1 170930Z 18012KT 27/20 A2998 RMK A01 T02680195  RH  064%=      5-min Rain = 0
KRO1 170931Z 18013KT 27/20 A2998 RMK A01 T02680195  RH  064%=      5-min Rain = 0
KRO1 170932Z 18013KT 27/20 A2998 RMK A01 T02670195  RH  064%=      5-min Rain = 0
KRO1 170933Z 18012KT 27/20 A2998 RMK A01 T02670195  RH  064%=      5-min Rain = 0
KRO1 170934Z 18011KT 27/20 A2998 RMK A01 T02670195  RH  064%=      5-min Rain = 0
KRO1 170935Z 18010KT 27/20 A2998 RMK A01 T02670195  RH  065%=      5-min Rain = 0
KRO1 170936Z 18011KT 27/20 A2998 RMK A01 T02660195  RH  065%=      5-min Rain = 0
KRO1 170937Z 18012KT 27/20 A2998 RMK A01 T02660195  RH  065%=      5-min Rain = 0
KRO1 170938Z 18012KT 27/20 A2998 RMK A01 T02660195  RH  065%=      5-min Rain = 0
KRO1 170939Z 18011KT 27/19 A2998 RMK A01 T02660194  RH  065%=      5-min Rain = 0
KRO1 170940Z 18011KT 27/20 A2998 RMK A01 T02660195  RH  065%=      5-min Rain = 0
KRO1 170941Z 18011KT 27/20 A2998 RMK A01 T02660195  RH  065%=      5-min Rain = 0
KRO1 170942Z 18011KT 27/20 A2998 RMK A01 T02660195  RH  065%=      5-min Rain = 0
KRO1 170943Z 18010KT 27/20 A2998 RMK A01 T02650195  RH  065%=      5-min Rain = 0
KRO1 170944Z 18011KT 27/20 A2998 RMK A01 T02650195  RH  065%=      5-min Rain = 0
KRO1 170945Z 18012KT 27/20 A2998 RMK A01 T02650195  RH  065%=      5-min Rain = 0
KRO1 170946Z 18011KT 27/20 A2998 RMK A01 T02650195  RH  065%=      5-min Rain = 0
KRO1 170947Z 18012KT 27/20 A2998 RMK A01 T02650195  RH  065%=      5-min Rain = 0
KRO1 170948Z 18012KT 27/20 A2998 RMK A01 T02650195  RH  065%=      5-min Rain = 0
KRO1 170949Z 18011KT 27/20 A2998 RMK A01 T02650195  RH  065%=      5-min Rain = 0
KRO1 170950Z 17010KT 27/20 A2998 RMK A01 T02660196  RH  065%=      5-min Rain = 0
KRO1 170951Z 18010KT 27/20 A2998 RMK A01 T02650196  RH  066%=      5-min Rain = 0
KRO1 170952Z 17010KT 27/20 A2998 RMK A01 T02650196  RH  066%=      5-min Rain = 0
KRO1 170953Z 18012KT 27/20 A2998 RMK A01 T02650196  RH  066%=      5-min Rain = 0
KRO1 170954Z 18012KT 26/20 A2998 RMK A01 T02640196  RH  066%=      5-min Rain = 0
KRO1 170955Z 17010KT 26/20 A2998 RMK A01 T02640196  RH  066%=      5-min Rain = 0
KRO1 170956Z 17010KT 27/20 A2998 RMK A01 T02650196  RH  066%=      5-min Rain = 0
KRO1 170957Z 18011KT 26/20 A2998 RMK A01 T02640196  RH  066%=      5-min Rain = 0
KRO1 170958Z 17011KT 26/20 A2998 RMK A01 T02640196  RH  066%=      5-min Rain = 0
KRO1 170959Z 18012KT 26/20 A2998 RMK A01 T02640196  RH  066%=      5-min Rain = 0
KRO1 171000Z 17010KT 26/20 A2998 RMK A01 T02640196  RH  066%=      5-min Rain = 0
KRO1 171001Z 18011KT 26/20 A2998 RMK A01 T02640196  RH  066%=      5-min Rain = 0
KRO1 171002Z 18011KT 26/20 A2998 RMK A01 T02640197  RH  066%=      5-min Rain = 0
KRO1 171003Z 18012KT 26/20 A2998 RMK A01 T02640197  RH  066%=      5-min Rain = 0
KRO1 171004Z 17011KT 26/20 A2998 RMK A01 T02640197  RH  066%=      5-min Rain = 0
KRO1 171005Z 18012KT 26/20 A2998 RMK A01 T02640197  RH  066%=      5-min Rain = 0
KRO1 171006Z 18012KT 26/20 A2998 RMK A01 T02640197  RH  067%=      5-min Rain = 0
KRO1 171007Z 18011KT 26/20 A2998 RMK A01 T02640197  RH  067%=      5-min Rain = 0
KRO1 171008Z 18011KT 26/20 A2998 RMK A01 T02640197  RH  067%=      5-min Rain = 0
KRO1 171009Z 18011KT 26/20 A2998 RMK A01 T02640197  RH  067%=      5-min Rain = 0
KRO1 171010Z 18012KT 26/20 A2998 RMK A01 T02640198  RH  067%=      5-min Rain = 0
KRO1 171011Z 18011KT 26/20 A2998 RMK A01 T02630197  RH  067%=      5-min Rain = 0
KRO1 171012Z 18012KT 26/20 A2998 RMK A01 T02640198  RH  067%=      5-min Rain = 0
KRO1 171013Z 18010KT 26/20 A2998 RMK A01 T02640198  RH  067%=      5-min Rain = 0
KRO1 171014Z 18012KT 26/20 A2998 RMK A01 T02630198  RH  067%=      5-min Rain = 0
KRO1 171015Z 19011KT 26/20 A2998 RMK A01 T02630199  RH  068%=      5-min Rain = 0
KRO1 171016Z 18014KT 26/20 A2998 RMK A01 T02630199  RH  068%=      5-min Rain = 0
KRO1 171017Z 19013KT 26/20 A2998 RMK A01 T02630199  RH  068%=      5-min Rain = 0
KRO1 171018Z 18014KT 26/20 A2998 RMK A01 T02640199  RH  068%=      5-min Rain = 0
KRO1 171019Z 18013KT 26/20 A2998 RMK A01 T02640199  RH  068%=      5-min Rain = 0
KRO1 171020Z 19013KT 26/20 A2998 RMK A01 T02640199  RH  068%=      5-min Rain = 0
KRO1 171021Z 18012KT 26/20 A2998 RMK A01 T02640199  RH  068%=      5-min Rain = 0
KRO1 171022Z 18011KT 26/20 A2998 RMK A01 T02640199  RH  068%=      5-min Rain = 0
KRO1 171023Z 18013KT 26/20 A2998 RMK A01 T02640200  RH  068%=      5-min Rain = 0
KRO1 171024Z 18011KT 26/20 A2998 RMK A01 T02640199  RH  068%=      5-min Rain = 0
KRO1 171025Z 18011KT 26/20 A2998 RMK A01 T02630199  RH  068%=      5-min Rain = 0
KRO1 171026Z 18010KT 26/20 A2998 RMK A01 T02640200  RH  068%=      5-min Rain = 0
KRO1 171027Z 18011KT 26/20 A2998 RMK A01 T02640200  RH  068%=      5-min Rain = 0
KRO1 171028Z 18010KT 26/20 A2998 RMK A01 T02640200  RH  068%=      5-min Rain = 0
KRO1 171029Z 18011KT 26/20 A2998 RMK A01 T02640200  RH  068%=      5-min Rain = 0
KRO1 171030Z 18010KT 26/20 A2999 RMK A01 T02630200  RH  068%=      5-min Rain = 0
KRO1 171031Z 19011KT 26/20 A2999 RMK A01 T02630201  RH  068%=      5-min Rain = 0
KRO1 171032Z 18013KT 26/20 A2998 RMK A01 T02630201  RH  068%=      5-min Rain = 0
KRO1 171033Z 18012KT 26/20 A2999 RMK A01 T02630200  RH  068%=      5-min Rain = 0
KRO1 171034Z 19013KT 26/20 A2999 RMK A01 T02630200  RH  068%=      5-min Rain = 0
KRO1 171035Z 19012KT 26/20 A2999 RMK A01 T02630201  RH  068%=      5-min Rain = 0
KRO1 171036Z 19012KT 26/20 A2999 RMK A01 T02640201  RH  068%=      5-min Rain = 0
KRO1 171037Z 18014KT 26/20 A2999 RMK A01 T02640202  RH  069%=      5-min Rain = 0
KRO1 171038Z 19012KT 26/20 A2999 RMK A01 T02640201  RH  069%=      5-min Rain = 0
KRO1 171039Z 19012KT 26/20 A2999 RMK A01 T02630201  RH  069%=      5-min Rain = 0
KRO1 171040Z 19013KT 26/20 A2999 RMK A01 T02630201  RH  069%=      5-min Rain = 0
KRO1 171041Z 19012KT 26/20 A2999 RMK A01 T02630202  RH  069%=      5-min Rain = 0
KRO1 171042Z 19012KT 26/20 A2999 RMK A01 T02630201  RH  069%=      5-min Rain = 0
KRO1 171043Z 19012KT 26/20 A2999 RMK A01 T02630201  RH  069%=      5-min Rain = 0
KRO1 171044Z 19011KT 26/20 A2999 RMK A01 T02630202  RH  069%=      5-min Rain = 0
KRO1 171045Z 19012KT 26/20 A2999 RMK A01 T02630201  RH  069%=      5-min Rain = 0
KRO1 171046Z 19011KT 26/20 A2999 RMK A01 T02630202  RH  069%=      5-min Rain = 0
KRO1 171047Z 19013KT 26/20 A2999 RMK A01 T02630202  RH  069%=      5-min Rain = 0
KRO1 171048Z 19013KT 26/20 A2999 RMK A01 T02630202  RH  069%=      5-min Rain = 0
KRO1 171049Z 18011KT 26/20 A2999 RMK A01 T02630202  RH  069%=      5-min Rain = 0
KRO1 171050Z 18012KT 26/20 A2999 RMK A01 T02630202  RH  069%=      5-min Rain = 0
KRO1 171051Z 18013KT 26/20 A2999 RMK A01 T02630202  RH  069%=      5-min Rain = 0
KRO1 171052Z 18012KT 26/20 A2999 RMK A01 T02630202  RH  069%=      5-min Rain = 0
KRO1 171053Z 18013KT 26/20 A2999 RMK A01 T02630202  RH  069%=      5-min Rain = 0
KRO1 171054Z 18013KT 26/20 A2999 RMK A01 T02630202  RH  069%=      5-min Rain = 0
KRO1 171055Z 18012KT 26/20 A2999 RMK A01 T02630202  RH  069%=      5-min Rain = 0
KRO1 171056Z 19011KT 26/20 A2999 RMK A01 T02620202  RH  069%=      5-min Rain = 0
KRO1 171057Z 18011KT 26/20 A2999 RMK A01 T02620202  RH  070%=      5-min Rain = 0
KRO1 171058Z 18011KT 26/20 A2999 RMK A01 T02620202  RH  070%=      5-min Rain = 0
KRO1 171059Z 19011KT 26/20 A2999 RMK A01 T02610202  RH  070%=      5-min Rain = 0
KRO1 171100Z 18012KT 26/20 A2999 RMK A01 T02610202  RH  070%=      5-min Rain = 0
KRO1 171101Z 19010KT 26/20 A2999 RMK A01 T02610202  RH  070%=      5-min Rain = 0
KRO1 171102Z 18012KT 26/20 A2999 RMK A01 T02610202  RH  070%=      5-min Rain = 0
KRO1 171103Z 18012KT 26/20 A2999 RMK A01 T02610202  RH  070%=      5-min Rain = 0
KRO1 171104Z 18011KT 26/20 A30 RMK A01 T02610202  RH  070%=      5-min Rain = 0
KRO1 171105Z 18010KT 26/20 A30 RMK A01 T02610203  RH  070%=      5-min Rain = 0
KRO1 171106Z 19010KT 26/20 A30 RMK A01 T02600203  RH  070%=      5-min Rain = 0
KRO1 171107Z 18011KT 26/20 A30 RMK A01 T02600203  RH  071%=      5-min Rain = 0
KRO1 171108Z 19011KT 26/20 A30 RMK A01 T02600203  RH  071%=      5-min Rain = 0
KRO1 171109Z 18011KT 26/20 A30 RMK A01 T02600203  RH  071%=      5-min Rain = 0
KRO1 171110Z 18012KT 26/20 A30 RMK A01 T02600203  RH  071%=      5-min Rain = 0
KRO1 171111Z 19011KT 26/20 A30 RMK A01 T02600203  RH  071%=      5-min Rain = 0
KRO1 171112Z 18010KT 26/20 A30 RMK A01 T02600203  RH  071%=      5-min Rain = 0
KRO1 171113Z 18011KT 26/20 A30 RMK A01 T02600203  RH  071%=      5-min Rain = 0
KRO1 171114Z 19012KT 26/20 A30 RMK A01 T02600203  RH  071%=      5-min Rain = 0
KRO1 171115Z 19011KT 26/20 A30 RMK A01 T02600203  RH  071%=      5-min Rain = 0
KRO1 171116Z 19012KT 26/20 A30 RMK A01 T02590203  RH  071%=      5-min Rain = 0
KRO1 171117Z 18013KT 26/20 A30 RMK A01 T02590203  RH  071%=      5-min Rain = 0
KRO1 171118Z 19012KT 26/20 A30 RMK A01 T02590203  RH  071%=      5-min Rain = 0
KRO1 171119Z 19013KT 26/20 A30 RMK A01 T02590203  RH  071%=      5-min Rain = 0
KRO1 171120Z 19014KT 26/20 A30 RMK A01 T02600204  RH  071%=      5-min Rain = 0
KRO1 171121Z 19013KT 26/20 A30 RMK A01 T02600203  RH  071%=      5-min Rain = 0
KRO1 171122Z 19013KT 26/20 A30 RMK A01 T02600203  RH  071%=      5-min Rain = 0
KRO1 171123Z 19012KT 26/20 A30 RMK A01 T02590203  RH  071%=      5-min Rain = 0
KRO1 171124Z 19011KT 26/20 A30 RMK A01 T02600204  RH  071%=      5-min Rain = 0
KRO1 171125Z 19013KT 26/20 A30 RMK A01 T02590204  RH  071%=      5-min Rain = 0
KRO1 171126Z 19014KT 26/20 A30 RMK A01 T02590204  RH  072%=      5-min Rain = 0
KRO1 171127Z 19014KT 26/20 A30 RMK A01 T02590204  RH  072%=      5-min Rain = 0
KRO1 171128Z 19013KT 26/20 A30 RMK A01 T02590204  RH  072%=      5-min Rain = 0
KRO1 171129Z 19014KT 26/20 A30 RMK A01 T02590204  RH  072%=      5-min Rain = 0
KRO1 171130Z 19014KT 26/20 A30 RMK A01 T02590204  RH  072%=      5-min Rain = 0
KRO1 171131Z 19013KT 26/20 A30 RMK A01 T02590204  RH  072%=      5-min Rain = 0
KRO1 171132Z 19013KT 26/20 A30 RMK A01 T02590204  RH  072%=      5-min Rain = 0
KRO1 171133Z 19014KT 26/20 A30 RMK A01 T02580204  RH  072%=      5-min Rain = 0
KRO1 171134Z 19014KT 26/20 A30 RMK A01 T02590204  RH  072%=      5-min Rain = 0
KRO1 171135Z 19014KT 26/20 A30 RMK A01 T02580204  RH  072%=      5-min Rain = 0
KRO1 171136Z 19013KT 26/20 A30 RMK A01 T02590204  RH  072%=      5-min Rain = 0
KRO1 171137Z 18013KT 26/20 A30 RMK A01 T02590204  RH  072%=      5-min Rain = 0
KRO1 171138Z 19013KT 26/20 A30 RMK A01 T02580204  RH  072%=      5-min Rain = 0
KRO1 171139Z 19013KT 26/20 A30 RMK A01 T02580204  RH  072%=      5-min Rain = 0
KRO1 171140Z 19013KT 26/20 A30 RMK A01 T02580204  RH  072%=      5-min Rain = 0
KRO1 171141Z 19014KT 26/20 A30 RMK A01 T02580204  RH  072%=      5-min Rain = 0
KRO1 171142Z 19013KT 26/20 A30 RMK A01 T02580204  RH  072%=      5-min Rain = 0
KRO1 171143Z 19013KT 26/20 A30 RMK A01 T02580204  RH  072%=      5-min Rain = 0
KRO1 171144Z 19013KT 26/20 A30 RMK A01 T02580204  RH  072%=      5-min Rain = 0
KRO1 171145Z 19013KT 26/20 A30 RMK A01 T02570204  RH  072%=      5-min Rain = 0
KRO1 171146Z 19012KT 26/20 A30 RMK A01 T02570204  RH  072%=      5-min Rain = 0
KRO1 171147Z 19014KT 26/20 A30 RMK A01 T02570204  RH  072%=      5-min Rain = 0
KRO1 171148Z 19012KT 26/20 A30 RMK A01 T02570204  RH  072%=      5-min Rain = 0
KRO1 171149Z 18013KT 26/20 A30 RMK A01 T02570204  RH  072%=      5-min Rain = 0
KRO1 171150Z 18014KT 26/20 A30 RMK A01 T02570204  RH  072%=      5-min Rain = 0
KRO1 171151Z 19013KT 26/20 A30 RMK A01 T02570204  RH  072%=      5-min Rain = 0
KRO1 171152Z 18013KT 26/20 A30 RMK A01 T02570204  RH  072%=      5-min Rain = 0
KRO1 171153Z 18012KT 26/20 A30 RMK A01 T02570204  RH  073%=      5-min Rain = 0
KRO1 171154Z 18013KT 26/20 A30 RMK A01 T02570204  RH  073%=      5-min Rain = 0
KRO1 171155Z 18013KT 26/20 A30 RMK A01 T02570204  RH  073%=      5-min Rain = 0
KRO1 171156Z 18013KT 26/20 A30 RMK A01 T02560204  RH  073%=      5-min Rain = 0
KRO1 171157Z 18013KT 26/20 A30 RMK A01 T02560204  RH  073%=      5-min Rain = 0
KRO1 171158Z 18013KT 26/20 A30 RMK A01 T02560204  RH  073%=      5-min Rain = 0
KRO1 171159Z 18013KT 26/20 A30 RMK A01 T02560204  RH  073%=      5-min Rain = 0
KRO1 171200Z 19013KT 26/20 A30 RMK A01 T02560204  RH  073%=      5-min Rain = 0
KRO1 171201Z 18014KT 26/20 A30 RMK A01 T02560203  RH  073%=      5-min Rain = 0
KRO1 171202Z 18013KT 26/20 A30 RMK A01 T02570204  RH  073%=      5-min Rain = 0
KRO1 171203Z 18013KT 26/20 A30 RMK A01 T02570204  RH  072%=      5-min Rain = 0
KRO1 171204Z 18012KT 26/20 A30 RMK A01 T02570204  RH  072%=      5-min Rain = 0
KRO1 171205Z 18013KT 26/20 A30 RMK A01 T02570204  RH  073%=      5-min Rain = 0
KRO1 171206Z 18013KT 26/20 A30 RMK A01 T02570204  RH  073%=      5-min Rain = 0
KRO1 171207Z 18012KT 26/20 A30 RMK A01 T02570204  RH  073%=      5-min Rain = 0
KRO1 171208Z 18013KT 26/20 A30 RMK A01 T02570204  RH  073%=      5-min Rain = 0
KRO1 171209Z 18014KT 26/20 A30 RMK A01 T02570204  RH  073%=      5-min Rain = 0
KRO1 171210Z 18014KT 26/20 A30 RMK A01 T02570204  RH  072%=      5-min Rain = 0
KRO1 171211Z 18013KT 26/20 A30 RMK A01 T02570204  RH  072%=      5-min Rain = 0
KRO1 171212Z 18013KT 26/20 A30 RMK A01 T02580204  RH  072%=      5-min Rain = 0
KRO1 171213Z 18014KT 26/20 A30 RMK A01 T02580204  RH  072%=      5-min Rain = 0
KRO1 171214Z 18013KT 26/21 A30 RMK A01 T02580205  RH  072%=      5-min Rain = 0
KRO1 171215Z 18013KT 26/20 A30 RMK A01 T02580204  RH  072%=      5-min Rain = 0
KRO1 171216Z 18012KT 26/20 A30 RMK A01 T02580204  RH  072%=      5-min Rain = 0
KRO1 171217Z 18014KT 26/20 A30 RMK A01 T02580204  RH  072%=      5-min Rain = 0
KRO1 171218Z 18013KT 26/20 A30 RMK A01 T02580204  RH  072%=      5-min Rain = 0
KRO1 171219Z 18013KT 26/20 A30 RMK A01 T02580204  RH  072%=      5-min Rain = 0
KRO1 171220Z 18013KT 26/20 A30 RMK A01 T02580204  RH  072%=      5-min Rain = 0
KRO1 171221Z 18013KT 26/20 A30 RMK A01 T02590204  RH  072%=      5-min Rain = 0
KRO1 171222Z 18014KT 26/20 A30 RMK A01 T02590204  RH  072%=      5-min Rain = 0
KRO1 171223Z 18013KT 26/20 A30 RMK A01 T02590204  RH  072%=      5-min Rain = 0
KRO1 171224Z 18013KT 26/20 A30 RMK A01 T02590204  RH  072%=      5-min Rain = 0
KRO1 171225Z 18011KT 26/20 A30 RMK A01 T02590204  RH  072%=      5-min Rain = 0
KRO1 171226Z 18013KT 26/21 A30 RMK A01 T02590205  RH  072%=      5-min Rain = 0
KRO1 171227Z 18012KT 26/20 A30 RMK A01 T02590204  RH  072%=      5-min Rain = 0
KRO1 171228Z 18012KT 26/21 A30 RMK A01 T02600205  RH  072%=      5-min Rain = 0
KRO1 171229Z 17011KT 26/21 A30 RMK A01 T02600205  RH  071%=      5-min Rain = 0
KRO1 171230Z 18010KT 26/21 A3001 RMK A01 T02600205  RH  072%=      5-min Rain = 0
KRO1 171231Z 18014KT 26/21 A3001 RMK A01 T02610205  RH  071%=      5-min Rain = 0
KRO1 171232Z 18011KT 26/21 A3001 RMK A01 T02610205  RH  071%=      5-min Rain = 0
KRO1 171233Z 18012KT 26/21 A3001 RMK A01 T02610205  RH  071%=      5-min Rain = 0
KRO1 171234Z 18014KT 26/21 A3001 RMK A01 T02610205  RH  071%=      5-min Rain = 0
KRO1 171235Z 18012KT 26/21 A3001 RMK A01 T02610205  RH  071%=      5-min Rain = 0
KRO1 171236Z 18013KT 26/21 A3001 RMK A01 T02620205  RH  071%=      5-min Rain = 0
KRO1 171237Z 18011KT 26/21 A3001 RMK A01 T02620206  RH  071%=      5-min Rain = 0
KRO1 171238Z 18013KT 26/21 A3001 RMK A01 T02620206  RH  071%=      5-min Rain = 0
KRO1 171239Z 18014KT 26/21 A3001 RMK A01 T02620205  RH  071%=      5-min Rain = 0
KRO1 171240Z 18014KT 26/21 A3001 RMK A01 T02620205  RH  071%=      5-min Rain = 0
KRO1 171241Z 18013KT 26/21 A3001 RMK A01 T02620205  RH  071%=      5-min Rain = 0
KRO1 171242Z 19011KT 26/21 A3001 RMK A01 T02630206  RH  071%=      5-min Rain = 0
KRO1 171243Z 18009KT 26/21 A3001 RMK A01 T02630206  RH  071%=      5-min Rain = 0
KRO1 171244Z 18010KT 26/21 A3001 RMK A01 T02630207  RH  071%=      5-min Rain = 0
KRO1 171245Z 18011KT 26/21 A3001 RMK A01 T02640207  RH  071%=      5-min Rain = 0
KRO1 171246Z 18011KT 26/21 A3001 RMK A01 T02640206  RH  071%=      5-min Rain = 0
KRO1 171247Z 18011KT 26/21 A3001 RMK A01 T02640207  RH  071%=      5-min Rain = 0
KRO1 171248Z 18011KT 26/21 A3001 RMK A01 T02640206  RH  070%=      5-min Rain = 0
KRO1 171249Z 18011KT 26/21 A3001 RMK A01 T02640207  RH  071%=      5-min Rain = 0
KRO1 171250Z 18012KT 27/21 A3001 RMK A01 T02650206  RH  070%=      5-min Rain = 0
KRO1 171251Z 17013KT 27/21 A3001 RMK A01 T02650206  RH  070%=      5-min Rain = 0
KRO1 171252Z 18012KT 27/21 A3001 RMK A01 T02650206  RH  070%=      5-min Rain = 0
KRO1 171253Z 18012KT 27/21 A3001 RMK A01 T02650207  RH  070%=      5-min Rain = 0
KRO1 171254Z 18012KT 27/21 A3001 RMK A01 T02650207  RH  070%=      5-min Rain = 0
KRO1 171255Z 18012KT 27/21 A3001 RMK A01 T02650207  RH  070%=      5-min Rain = 0
KRO1 171256Z 18010KT 27/21 A3001 RMK A01 T02660207  RH  070%=      5-min Rain = 0
KRO1 171257Z 18011KT 27/21 A3001 RMK A01 T02660207  RH  070%=      5-min Rain = 0
KRO1 171258Z 18012KT 27/21 A3001 RMK A01 T02660207  RH  070%=      5-min Rain = 0
KRO1 171259Z 18012KT 27/21 A3001 RMK A01 T02670207  RH  070%=      5-min Rain = 0
KRO1 171300Z 19015KT 27/21 A3001 RMK A01 T02660207  RH  070%=      5-min Rain = 0
KRO1 171301Z 18015KT 27/21 A3001 RMK A01 T02660207  RH  070%=      5-min Rain = 0
KRO1 171302Z 18011KT 27/21 A3001 RMK A01 T02660207  RH  070%=      5-min Rain = 0
KRO1 171303Z 18013KT 27/21 A3001 RMK A01 T02670207  RH  070%=      5-min Rain = 0
KRO1 171304Z 18013KT 27/21 A3001 RMK A01 T02670207  RH  070%=      5-min Rain = 0
KRO1 171305Z 18012KT 27/21 A3001 RMK A01 T02670207  RH  070%=      5-min Rain = 0
KRO1 171306Z 17014G19KT 27/21 A3001 RMK A01 T02670207  RH  070%=      5-min Rain = 0
KRO1 171307Z 18016KT 27/21 A3001 RMK A01 T02670206  RH  069%=      5-min Rain = 0
KRO1 171308Z 17015KT 27/21 A3001 RMK A01 T02670207  RH  069%=      5-min Rain = 0
KRO1 171309Z 18015KT 27/21 A3001 RMK A01 T02680207  RH  069%=      5-min Rain = 0
KRO1 171310Z 18015KT 27/21 A3001 RMK A01 T02680207  RH  069%=      5-min Rain = 0
KRO1 171311Z 18016KT 27/21 A3001 RMK A01 T02680207  RH  069%=      5-min Rain = 0
KRO1 171312Z 18016KT 27/21 A3001 RMK A01 T02680207  RH  069%=      5-min Rain = 0
KRO1 171313Z 18014KT 27/21 A3001 RMK A01 T02690207  RH  069%=      5-min Rain = 0
KRO1 171314Z 17016KT 27/21 A3002 RMK A01 T02690207  RH  069%=      5-min Rain = 0
KRO1 171315Z 18017KT 27/21 A3002 RMK A01 T02690206  RH  068%=      5-min Rain = 0
KRO1 171316Z 18015KT 27/21 A3002 RMK A01 T02690207  RH  068%=      5-min Rain = 0
KRO1 171317Z 18014KT 27/21 A3002 RMK A01 T02700207  RH  069%=      5-min Rain = 0
KRO1 171318Z 18013KT 27/21 A3002 RMK A01 T02700207  RH  068%=      5-min Rain = 0
KRO1 171319Z 18014KT 27/21 A3002 RMK A01 T02710207  RH  068%=      5-min Rain = 0
KRO1 171320Z 18011KT 27/21 A3002 RMK A01 T02710207  RH  068%=      5-min Rain = 0
KRO1 171321Z 18015KT 27/21 A3002 RMK A01 T02720208  RH  068%=      5-min Rain = 0
KRO1 171322Z 18014KT 27/21 A3002 RMK A01 T02720207  RH  068%=      5-min Rain = 0
KRO1 171323Z 18016KT 27/21 A3002 RMK A01 T02710207  RH  068%=      5-min Rain = 0
KRO1 171324Z 18017KT 27/21 A3002 RMK A01 T02720206  RH  067%=      5-min Rain = 0
KRO1 171325Z 18013KT 27/21 A3002 RMK A01 T02720206  RH  067%=      5-min Rain = 0
KRO1 171326Z 18017KT 27/21 A3002 RMK A01 T02720207  RH  067%=      5-min Rain = 0
KRO1 171327Z 18015KT 27/21 A3002 RMK A01 T02720206  RH  067%=      5-min Rain = 0
KRO1 171328Z 18014KT 27/21 A3002 RMK A01 T02720207  RH  067%=      5-min Rain = 0
KRO1 171329Z 19013KT 27/21 A3002 RMK A01 T02720206  RH  067%=      5-min Rain = 0
KRO1 171330Z 19015KT 27/21 A3002 RMK A01 T02730207  RH  067%=      5-min Rain = 0
KRO1 171331Z 19013KT 27/21 A3002 RMK A01 T02730207  RH  067%=      5-min Rain = 0
KRO1 171332Z 18013KT 27/21 A3002 RMK A01 T02740207  RH  067%=      5-min Rain = 0
KRO1 171333Z 18015KT 27/21 A3002 RMK A01 T02740207  RH  067%=      5-min Rain = 0
KRO1 171334Z 18017KT 28/21 A3002 RMK A01 T02750207  RH  066%=      5-min Rain = 0
KRO1 171335Z 19016KT 28/21 A3002 RMK A01 T02750206  RH  066%=      5-min Rain = 0
KRO1 171336Z 19016KT 28/21 A3002 RMK A01 T02750206  RH  066%=      5-min Rain = 0
KRO1 171337Z 18015KT 28/21 A3003 RMK A01 T02750206  RH  066%=      5-min Rain = 0
KRO1 171338Z 18016KT 28/21 A3003 RMK A01 T02760206  RH  066%=      5-min Rain = 0
KRO1 171339Z 19016KT 28/21 A3003 RMK A01 T02770206  RH  065%=      5-min Rain = 0
KRO1 171340Z 19019KT 28/21 A3003 RMK A01 T02770206  RH  065%=      5-min Rain = 0
KRO1 171341Z 19015KT 28/21 A3003 RMK A01 T02770206  RH  065%=      5-min Rain = 0
KRO1 171342Z 19017KT 28/21 A3003 RMK A01 T02760205  RH  065%=      5-min Rain = 0
KRO1 171343Z 19019KT 28/21 A3003 RMK A01 T02770205  RH  065%=      5-min Rain = 0
KRO1 171344Z 19019KT 28/20 A3003 RMK A01 T02760203  RH  064%=      5-min Rain = 0
KRO1 171345Z 19018KT 28/20 A3003 RMK A01 T02760203  RH  064%=      5-min Rain = 0
KRO1 171346Z 19019KT 28/20 A3003 RMK A01 T02770204  RH  064%=      5-min Rain = 0
KRO1 171347Z 19016KT 28/21 A3003 RMK A01 T02770205  RH  065%=      5-min Rain = 0
KRO1 171348Z 19015KT 28/20 A3003 RMK A01 T02770204  RH  065%=      5-min Rain = 0
KRO1 171349Z 19014KT 28/21 A3003 RMK A01 T02780205  RH  065%=      5-min Rain = 0
KRO1 171350Z 20016KT 28/21 A3003 RMK A01 T02800205  RH  064%=      5-min Rain = 0
KRO1 171351Z 18018KT 28/20 A3003 RMK A01 T02810204  RH  063%=      5-min Rain = 0
KRO1 171352Z 19017KT 28/20 A3003 RMK A01 T02810203  RH  063%=      5-min Rain = 0
KRO1 171353Z 19017KT 28/20 A3003 RMK A01 T02800203  RH  063%=      5-min Rain = 0
KRO1 171354Z 19019KT 28/20 A3003 RMK A01 T02800203  RH  063%=      5-min Rain = 0
KRO1 171355Z 19021KT 28/20 A3003 RMK A01 T02800202  RH  062%=      5-min Rain = 0
KRO1 171356Z 18019KT 28/20 A3003 RMK A01 T02790202  RH  063%=      5-min Rain = 0
KRO1 171357Z 18017KT 28/20 A3003 RMK A01 T02790202  RH  063%=      5-min Rain = 0
KRO1 171358Z 19017KT 28/20 A3003 RMK A01 T02790203  RH  063%=      5-min Rain = 0
KRO1 171359Z 19017KT 28/20 A3003 RMK A01 T02800203  RH  063%=      5-min Rain = 0
KRO1 171400Z 19017KT 28/20 A3003 RMK A01 T02810204  RH  063%=      5-min Rain = 0
KRO1 171401Z 20018KT 28/20 A3003 RMK A01 T02810204  RH  063%=      5-min Rain = 0
KRO1 171402Z 20016KT 28/20 A3003 RMK A01 T02810203  RH  062%=      5-min Rain = 0
KRO1 171403Z 19016KT 28/20 A3003 RMK A01 T02820203  RH  062%=      5-min Rain = 0
KRO1 171404Z 20017KT 28/20 A3003 RMK A01 T02820204  RH  062%=      5-min Rain = 0
KRO1 171405Z 19017KT 28/20 A3003 RMK A01 T02820204  RH  062%=      5-min Rain = 0
KRO1 171406Z 18016KT 28/20 A3003 RMK A01 T02830203  RH  062%=      5-min Rain = 0
KRO1 171407Z 19017KT 28/20 A3003 RMK A01 T02840204  RH  062%=      5-min Rain = 0
KRO1 171408Z 19017KT 28/20 A3003 RMK A01 T02840204  RH  062%=      5-min Rain = 0
KRO1 171409Z 19016KT 28/21 A3003 RMK A01 T02830205  RH  062%=      5-min Rain = 0
KRO1 171410Z 19015KT 28/21 A3003 RMK A01 T02840206  RH  063%=      5-min Rain = 0
KRO1 171411Z 18014KT 29/21 A3003 RMK A01 T02850205  RH  062%=      5-min Rain = 0
KRO1 171412Z 19012KT 29/21 A3003 RMK A01 T02870207  RH  062%=      5-min Rain = 0
KRO1 171413Z 18013KT 29/21 A3003 RMK A01 T02880206  RH  061%=      5-min Rain = 0
KRO1 171414Z 18014KT 29/21 A3003 RMK A01 T02880207  RH  061%=      5-min Rain = 0
KRO1 171415Z 18017KT 29/21 A3003 RMK A01 T02890206  RH  061%=      5-min Rain = 0
KRO1 171416Z 18016KT 29/21 A3003 RMK A01 T02880206  RH  061%=      5-min Rain = 0
KRO1 171417Z 18016KT 29/21 A3003 RMK A01 T02870206  RH  062%=      5-min Rain = 0
KRO1 171418Z 18017KT 29/21 A3003 RMK A01 T02870205  RH  061%=      5-min Rain = 0
KRO1 171419Z 18018KT 29/21 A3003 RMK A01 T02870205  RH  061%=      5-min Rain = 0
KRO1 171420Z 18016KT 29/20 A3003 RMK A01 T02870204  RH  061%=      5-min Rain = 0
KRO1 171421Z 18013KT 29/21 A3003 RMK A01 T02870205  RH  061%=      5-min Rain = 0
KRO1 171422Z 18015KT 29/21 A3003 RMK A01 T02880206  RH  061%=      5-min Rain = 0
KRO1 171423Z 18015KT 29/21 A3003 RMK A01 T02890205  RH  060%=      5-min Rain = 0
KRO1 171424Z 18015KT 29/21 A3003 RMK A01 T02900206  RH  061%=      5-min Rain = 0
KRO1 171425Z 18015KT 29/21 A3003 RMK A01 T02900206  RH  060%=      5-min Rain = 0
KRO1 171426Z 18015KT 29/21 A3003 RMK A01 T02900206  RH  060%=      5-min Rain = 0
KRO1 171427Z 17018KT 29/20 A3003 RMK A01 T02900204  RH  060%=      5-min Rain = 0
KRO1 171428Z 18018KT 29/20 A3003 RMK A01 T02890204  RH  060%=      5-min Rain = 0
KRO1 171429Z 17017KT 29/20 A3003 RMK A01 T02880204  RH  061%=      5-min Rain = 0
KRO1 171430Z 17015KT 29/20 A3003 RMK A01 T02880204  RH  060%=      5-min Rain = 0
KRO1 171431Z 18014KT 29/21 A3003 RMK A01 T02900205  RH  060%=      5-min Rain = 0
KRO1 171432Z 18018KT 29/21 A3003 RMK A01 T02910205  RH  060%=      5-min Rain = 0
KRO1 171433Z 18015KT 29/21 A3003 RMK A01 T02910205  RH  059%=      5-min Rain = 0
KRO1 171434Z 18014KT 29/21 A3003 RMK A01 T02910206  RH  060%=      5-min Rain = 0
KRO1 171435Z 19016KT 29/21 A3003 RMK A01 T02920206  RH  060%=      5-min Rain = 0
KRO1 171436Z 19014KT 29/21 A3003 RMK A01 T02930207  RH  060%=      5-min Rain = 0
KRO1 171437Z 19012KT 29/21 A3003 RMK A01 T02920207  RH  060%=      5-min Rain = 0
KRO1 171438Z 20015KT 29/21 A3003 RMK A01 T02940207  RH  060%=      5-min Rain = 0
KRO1 171439Z 18015KT 30/21 A3003 RMK A01 T02950205  RH  059%=      5-min Rain = 0
KRO1 171440Z 19015KT 29/21 A3003 RMK A01 T02940206  RH  059%=      5-min Rain = 0
KRO1 171441Z 18015KT 29/21 A3003 RMK A01 T02940206  RH  059%=      5-min Rain = 0
KRO1 171442Z 19016KT 29/21 A3003 RMK A01 T02930205  RH  059%=      5-min Rain = 0
KRO1 171443Z 19014KT 29/21 A3004 RMK A01 T02920205  RH  060%=      5-min Rain = 0
KRO1 171444Z 19015KT 29/21 A3004 RMK A01 T02920206  RH  060%=      5-min Rain = 0
KRO1 171445Z 20016KT 29/21 A3004 RMK A01 T02920205  RH  059%=      5-min Rain = 0
KRO1 171446Z 20013KT 29/21 A3004 RMK A01 T02920205  RH  059%=      5-min Rain = 0
KRO1 171447Z 18015KT 29/21 A3004 RMK A01 T02930206  RH  059%=      5-min Rain = 0
KRO1 171448Z 19014KT 30/21 A3004 RMK A01 T02950205  RH  058%=      5-min Rain = 0
KRO1 171449Z 20013KT 30/21 A3004 RMK A01 T02970206  RH  058%=      5-min Rain = 0
KRO1 171450Z 20017KT 30/21 A3004 RMK A01 T02980205  RH  057%=      5-min Rain = 0
KRO1 171451Z 19015KT 30/20 A3004 RMK A01 T02990204  RH  057%=      5-min Rain = 0
KRO1 171452Z 20016KT 30/20 A3003 RMK A01 T02960204  RH  058%=      5-min Rain = 0
KRO1 171453Z 20017KT 30/20 A3003 RMK A01 T02960204  RH  058%=      5-min Rain = 0
KRO1 171454Z 20016KT 30/20 A3003 RMK A01 T02970204  RH  057%=      5-min Rain = 0
KRO1 171455Z 20015G23KT 30/20 A3003 RMK A01 T02980204  RH  057%=      5-min Rain = 0
KRO1 171456Z 20019KT 30/20 A3003 RMK A01 T03000202  RH  056%=      5-min Rain = 0
KRO1 171457Z 19020KT 30/20 A3003 RMK A01 T02990203  RH  056%=      5-min Rain = 0
KRO1 171458Z 19019KT 30/20 A3003 RMK A01 T02980203  RH  057%=      5-min Rain = 0
KRO1 171459Z 20017KT 30/20 A3003 RMK A01 T02970202  RH  057%=      5-min Rain = 0
KRO1 171500Z 20018KT 30/20 A3003 RMK A01 T02970202  RH  057%=      5-min Rain = 0
KRO1 171501Z 20015KT 30/20 A3003 RMK A01 T02970203  RH  057%=      5-min Rain = 0
KRO1 171502Z 21016KT 30/20 A3003 RMK A01 T02970204  RH  057%=      5-min Rain = 0
KRO1 171503Z 20017KT 30/20 A3003 RMK A01 T02980204  RH  057%=      5-min Rain = 0
KRO1 171504Z 20016KT 30/21 A3003 RMK A01 T02980205  RH  057%=      5-min Rain = 0
KRO1 171505Z 19015KT 30/20 A3003 RMK A01 T02970204  RH  057%=      5-min Rain = 0
KRO1 171506Z 19012G18KT 30/21 A3003 RMK A01 T02970205  RH  058%=      5-min Rain = 0
KRO1 171507Z 18015KT 30/20 A3003 RMK A01 T03000203  RH  056%=      5-min Rain = 0
KRO1 171508Z 18016KT 30/20 A3003 RMK A01 T03010204  RH  056%=      5-min Rain = 0
KRO1 171509Z 17016KT 30/20 A3003 RMK A01 T03020202  RH  055%=      5-min Rain = 0
KRO1 171510Z 18018KT 30/20 A3003 RMK A01 T03010202  RH  055%=      5-min Rain = 0
KRO1 171511Z 18016KT 30/20 A3003 RMK A01 T03000202  RH  056%=      5-min Rain = 0
KRO1 171512Z 18019KT 30/20 A3003 RMK A01 T03010200  RH  055%=      5-min Rain = 0
KRO1 171513Z 19017KT 30/20 A3003 RMK A01 T03010201  RH  055%=      5-min Rain = 0
KRO1 171514Z 18017KT 30/20 A3003 RMK A01 T03010201  RH  055%=      5-min Rain = 0
KRO1 171515Z 18015KT 30/20 A3003 RMK A01 T03040201  RH  054%=      5-min Rain = 0
KRO1 171516Z 18016KT 31/20 A3003 RMK A01 T03060201  RH  054%=      5-min Rain = 0
KRO1 171517Z 18018KT 31/20 A3003 RMK A01 T03070200  RH  053%=      5-min Rain = 0
KRO1 171518Z 19017KT 31/20 A3003 RMK A01 T03060198  RH  053%=      5-min Rain = 0
KRO1 171519Z 19017KT 30/20 A3003 RMK A01 T03040199  RH  053%=      5-min Rain = 0
KRO1 171520Z 18018KT 30/20 A3003 RMK A01 T03040198  RH  053%=      5-min Rain = 0
KRO1 171521Z 18017KT 31/20 A3003 RMK A01 T03050200  RH  054%=      5-min Rain = 0
KRO1 171522Z 18016KT 30/20 A3003 RMK A01 T03030200  RH  054%=      5-min Rain = 0
KRO1 171523Z 18013KT 30/20 A3003 RMK A01 T03030201  RH  055%=      5-min Rain = 0
KRO1 171524Z 19015KT 31/20 A3003 RMK A01 T03050203  RH  054%=      5-min Rain = 0
KRO1 171525Z 18015KT 31/20 A3003 RMK A01 T03060202  RH  054%=      5-min Rain = 0
KRO1 171526Z 19013G18KT 31/20 A3003 RMK A01 T03070202  RH  054%=      5-min Rain = 0
KRO1 171527Z 18017KT 31/20 A3003 RMK A01 T03070202  RH  053%=      5-min Rain = 0
KRO1 171528Z 18017KT 31/20 A3003 RMK A01 T03080201  RH  053%=      5-min Rain = 0
KRO1 171529Z 17019KT 31/20 A3003 RMK A01 T03070198  RH  052%=      5-min Rain = 0
KRO1 171530Z 18019KT 31/20 A3003 RMK A01 T03060198  RH  053%=      5-min Rain = 0
KRO1 171531Z 19017KT 31/20 A3003 RMK A01 T03050200  RH  053%=      5-min Rain = 0
KRO1 171532Z 18015KT 30/20 A3003 RMK A01 T03040201  RH  054%=      5-min Rain = 0
KRO1 171533Z 18015KT 31/20 A3003 RMK A01 T03050201  RH  054%=      5-min Rain = 0
KRO1 171534Z 18017KT 31/20 A3003 RMK A01 T03070202  RH  054%=      5-min Rain = 0
KRO1 171535Z 17017KT 31/20 A3003 RMK A01 T03080201  RH  053%=      5-min Rain = 0
KRO1 171536Z 18013KT 31/20 A3003 RMK A01 T03080201  RH  053%=      5-min Rain = 0
KRO1 171537Z 19016KT 31/20 A3003 RMK A01 T03080202  RH  053%=      5-min Rain = 0
KRO1 171538Z 19018KT 31/20 A3003 RMK A01 T03090199  RH  052%=      5-min Rain = 0
KRO1 171539Z 19017KT 31/20 A3003 RMK A01 T03090200  RH  052%=      5-min Rain = 0
KRO1 171540Z 19016KT 31/20 A3003 RMK A01 T03100201  RH  052%=      5-min Rain = 0
KRO1 171541Z 19015KT 31/20 A3003 RMK A01 T03110201  RH  052%=      5-min Rain = 0
KRO1 171542Z 19012KT 31/20 A3003 RMK A01 T03100202  RH  053%=      5-min Rain = 0
KRO1 171543Z 20014KT 31/20 A3003 RMK A01 T03100201  RH  052%=      5-min Rain = 0
KRO1 171544Z 20019KT 31/20 A3003 RMK A01 T03120197  RH  050%=      5-min Rain = 0
KRO1 171545Z 18017KT 31/20 A3003 RMK A01 T03120195  RH  050%=      5-min Rain = 0
KRO1 171546Z 19019KT 31/20 A3003 RMK A01 T03120196  RH  050%=      5-min Rain = 0
KRO1 171547Z 20018KT 31/20 A3003 RMK A01 T03120195  RH  050%=      5-min Rain = 0
KRO1 171548Z 20019KT 31/20 A3003 RMK A01 T03110197  RH  051%=      5-min Rain = 0
KRO1 171549Z 19017KT 31/20 A3004 RMK A01 T03100196  RH  051%=      5-min Rain = 0
KRO1 171550Z 19015KT 31/20 A3004 RMK A01 T03100197  RH  051%=      5-min Rain = 0
KRO1 171551Z 20014KT 31/20 A3004 RMK A01 T03110198  RH  051%=      5-min Rain = 0
KRO1 171552Z 19013G18KT 31/20 A3004 RMK A01 T03120200  RH  051%=      5-min Rain = 0
KRO1 171553Z 18014KT 32/20 A3004 RMK A01 T03150200  RH  050%=      5-min Rain = 0
KRO1 171554Z 18017KT 32/20 A3004 RMK A01 T03160200  RH  050%=      5-min Rain = 0
KRO1 171555Z 18018KT 32/20 A3004 RMK A01 T03160200  RH  050%=      5-min Rain = 0
KRO1 171556Z 18015KT 31/20 A3004 RMK A01 T03140200  RH  051%=      5-min Rain = 0
KRO1 171557Z 19014KT 31/20 A3004 RMK A01 T03140200  RH  051%=      5-min Rain = 0
KRO1 171558Z 20014KT 31/20 A3003 RMK A01 T03140201  RH  051%=      5-min Rain = 0
KRO1 171559Z 19016G21KT 31/20 A3003 RMK A01 T03140200  RH  051%=      5-min Rain = 0
KRO1 171600Z 18016KT 32/20 A3003 RMK A01 T03170199  RH  050%=      5-min Rain = 0
KRO1 171601Z 18016KT 32/20 A3003 RMK A01 T03170199  RH  050%=      5-min Rain = 0
KRO1 171602Z 18016KT 32/20 A3003 RMK A01 T03180198  RH  049%=      5-min Rain = 0
KRO1 171603Z 18014KT 32/20 A3003 RMK A01 T03180198  RH  049%=      5-min Rain = 0
KRO1 171604Z 19014KT 32/20 A3003 RMK A01 T03160198  RH  049%=      5-min Rain = 0
KRO1 171605Z 20013KT 32/20 A3003 RMK A01 T03170199  RH  050%=      5-min Rain = 0
KRO1 171606Z 18015KT 32/20 A3003 RMK A01 T03180199  RH  049%=      5-min Rain = 0
KRO1 171607Z 18016KT 32/20 A3003 RMK A01 T03200198  RH  049%=      5-min Rain = 0
KRO1 171608Z 17015KT 32/20 A3003 RMK A01 T03200196  RH  048%=      5-min Rain = 0
KRO1 171609Z 18014KT 32/20 A3003 RMK A01 T03190199  RH  049%=      5-min Rain = 0
KRO1 171610Z 18017KT 32/20 A3003 RMK A01 T03200197  RH  048%=      5-min Rain = 0
KRO1 171611Z 19019KT 32/20 A3003 RMK A01 T03190196  RH  048%=      5-min Rain = 0
KRO1 171612Z 19017KT 32/20 A3003 RMK A01 T03180195  RH  048%=      5-min Rain = 0
KRO1 171613Z 20016KT 32/20 A3003 RMK A01 T03180195  RH  048%=      5-min Rain = 0
KRO1 171614Z 20017KT 32/20 A3003 RMK A01 T03180197  RH  049%=      5-min Rain = 0
KRO1 171615Z 20017KT 32/20 A3003 RMK A01 T03190200  RH  049%=      5-min Rain = 0
KRO1 171616Z 18013KT 32/20 A3003 RMK A01 T03200199  RH  049%=      5-min Rain = 0
KRO1 171617Z 19012KT 32/20 A3003 RMK A01 T03190199  RH  049%=      5-min Rain = 0
KRO1 171618Z 20013KT 32/20 A3003 RMK A01 T03190201  RH  050%=      5-min Rain = 0
KRO1 171619Z 20017KT 32/20 A3003 RMK A01 T03240201  RH  048%=      5-min Rain = 0
KRO1 171620Z 20014KT 33/20 A3003 RMK A01 T03250200  RH  048%=      5-min Rain = 0
KRO1 171621Z 19012KT 33/20 A3003 RMK A01 T03250202  RH  048%=      5-min Rain = 0
KRO1 171622Z 18014KT 33/20 A3003 RMK A01 T03260202  RH  048%=      5-min Rain = 0
KRO1 171623Z 18013KT 33/20 A3003 RMK A01 T03260201  RH  048%=      5-min Rain = 0
KRO1 171624Z 18014KT 32/20 A3003 RMK A01 T03240199  RH  048%=      5-min Rain = 0
KRO1 171625Z 19016KT 33/20 A3003 RMK A01 T03250198  RH  047%=      5-min Rain = 0
KRO1 171626Z 19014KT 33/20 A3003 RMK A01 T03250197  RH  047%=      5-min Rain = 0
KRO1 171627Z 19014KT 33/20 A3003 RMK A01 T03250197  RH  047%=      5-min Rain = 0
KRO1 171628Z 19013KT 33/20 A3003 RMK A01 T03260199  RH  047%=      5-min Rain = 0
KRO1 171629Z 19016KT 33/20 A3003 RMK A01 T03290197  RH  046%=      5-min Rain = 0
KRO1 171630Z 18013KT 33/20 A3003 RMK A01 T03280196  RH  046%=      5-min Rain = 0
KRO1 171631Z 18015KT 33/20 A3003 RMK A01 T03260199  RH  047%=      5-min Rain = 0
KRO1 171632Z 16012KT 33/20 A3003 RMK A01 T03270199  RH  047%=      5-min Rain = 0
KRO1 171633Z 17012KT 33/20 A3003 RMK A01 T03270201  RH  048%=      5-min Rain = 0
KRO1 171634Z 20017KT 33/20 A3003 RMK A01 T03270201  RH  048%=      5-min Rain = 0
KRO1 171635Z 19013KT 33/20 A3003 RMK A01 T03270200  RH  047%=      5-min Rain = 0
KRO1 171636Z 20013KT 33/20 A3003 RMK A01 T03260198  RH  047%=      5-min Rain = 0
KRO1 171637Z 20014KT 33/20 A3003 RMK A01 T03280198  RH  046%=      5-min Rain = 0
KRO1 171638Z 18015KT 33/20 A3003 RMK A01 T03280199  RH  047%=      5-min Rain = 0
KRO1 171639Z 19011KT 33/20 A3003 RMK A01 T03290199  RH  046%=      5-min Rain = 0
KRO1 171640Z 20013G20KT 33/20 A3003 RMK A01 T03290202  RH  047%=      5-min Rain = 0
KRO1 171641Z 19013KT 33/20 A3003 RMK A01 T03300201  RH  047%=      5-min Rain = 0
KRO1 171642Z 19011KT 33/20 A3003 RMK A01 T03320202  RH  046%=      5-min Rain = 0
KRO1 171643Z 20013KT 33/20 A3003 RMK A01 T03310201  RH  046%=      5-min Rain = 0
KRO1 171644Z 18016KT 33/20 A3003 RMK A01 T03300201  RH  047%=      5-min Rain = 0
KRO1 171645Z 18017KT 33/20 A3003 RMK A01 T03290200  RH  047%=      5-min Rain = 0
KRO1 171646Z 19016KT 33/20 A3003 RMK A01 T03270200  RH  047%=      5-min Rain = 0
KRO1 171647Z 18013KT 33/20 A3003 RMK A01 T03250201  RH  048%=      5-min Rain = 0
KRO1 171648Z 16011KT 33/20 A3003 RMK A01 T03250200  RH  048%=      5-min Rain = 0
KRO1 171649Z 19012G17KT 33/20 A3003 RMK A01 T03260202  RH  048%=      5-min Rain = 0
KRO1 171650Z 19018KT 33/20 A3003 RMK A01 T03290199  RH  046%=      5-min Rain = 0
KRO1 171651Z 19015KT 33/20 A3003 RMK A01 T03300200  RH  046%=      5-min Rain = 0
KRO1 171652Z 19012KT 33/20 A3003 RMK A01 T03300200  RH  047%=      5-min Rain = 0
KRO1 171653Z 18013KT 33/20 A3003 RMK A01 T03290199  RH  047%=      5-min Rain = 0
KRO1 171654Z 19014KT 33/20 A3003 RMK A01 T03290199  RH  046%=      5-min Rain = 0
KRO1 171655Z 19015KT 33/20 A3003 RMK A01 T03320199  RH  046%=      5-min Rain = 0
KRO1 171656Z 18010KT 33/20 A3003 RMK A01 T03330201  RH  046%=      5-min Rain = 0
KRO1 171657Z 18012G18KT 33/20 A3003 RMK A01 T03330204  RH  047%=      5-min Rain = 0
KRO1 171658Z 18015KT 34/20 A3003 RMK A01 T03350200  RH  045%=      5-min Rain = 0
KRO1 171659Z 18017KT 33/20 A3003 RMK A01 T03340200  RH  045%=      5-min Rain = 0
KRO1 171700Z 19016KT 33/20 A3003 RMK A01 T03310199  RH  046%=      5-min Rain = 0
KRO1 171701Z 20014KT 33/20 A3003 RMK A01 T03300200  RH  046%=      5-min Rain = 0
KRO1 171702Z 17015KT 33/20 A3003 RMK A01 T03330201  RH  046%=      5-min Rain = 0
KRO1 171703Z 17017KT 34/20 A3003 RMK A01 T03360199  RH  045%=      5-min Rain = 0
KRO1 171704Z 17015KT 33/20 A3003 RMK A01 T03340199  RH  045%=      5-min Rain = 0
KRO1 171705Z 19013KT 33/20 A3003 RMK A01 T03320199  RH  046%=      5-min Rain = 0
KRO1 171706Z 21015KT 33/20 A3003 RMK A01 T03340201  RH  045%=      5-min Rain = 0
KRO1 171707Z 20013KT 33/20 A3003 RMK A01 T03340200  RH  045%=      5-min Rain = 0
KRO1 171708Z 18015G20KT 33/20 A3003 RMK A01 T03330201  RH  046%=      5-min Rain = 0
KRO1 171709Z 18015KT 33/20 A3003 RMK A01 T03340201  RH  046%=      5-min Rain = 0
KRO1 171710Z 18016KT 33/20 A3003 RMK A01 T03340201  RH  046%=      5-min Rain = 0
KRO1 171711Z 19014KT 33/20 A3003 RMK A01 T03330201  RH  046%=      5-min Rain = 0
KRO1 171712Z 18014KT 33/20 A3003 RMK A01 T03310200  RH  046%=      5-min Rain = 0
KRO1 171713Z 16016KT 33/20 A3003 RMK A01 T03320196  RH  045%=      5-min Rain = 0
KRO1 171714Z 17017KT 33/20 A3003 RMK A01 T03320196  RH  045%=      5-min Rain = 0
KRO1 171715Z 17017KT 33/20 A3003 RMK A01 T03330195  RH  044%=      5-min Rain = 0
KRO1 171716Z 16015KT 33/20 A3003 RMK A01 T03330198  RH  045%=      5-min Rain = 0
KRO1 171717Z 18019G24KT 34/20 A3003 RMK A01 T03350198  RH  045%=      5-min Rain = 0
KRO1 171718Z 18015KT 34/20 A3003 RMK A01 T03350200  RH  045%=      5-min Rain = 0
KRO1 171719Z 18013KT 33/20 A3003 RMK A01 T03340198  RH  045%=      5-min Rain = 0
KRO1 171720Z 18013KT 33/20 A3003 RMK A01 T03330195  RH  044%=      5-min Rain = 0
KRO1 171721Z 19015KT 33/19 A3003 RMK A01 T03340194  RH  044%=      5-min Rain = 0
KRO1 171722Z 19013KT 34/19 A3003 RMK A01 T03350194  RH  043%=      5-min Rain = 0
KRO1 171723Z 19015KT 34/20 A3003 RMK A01 T03350196  RH  044%=      5-min Rain = 0
KRO1 171724Z 19017KT 34/20 A3003 RMK A01 T03350198  RH  045%=      5-min Rain = 0
KRO1 171725Z 19013KT 34/20 A3003 RMK A01 T03360199  RH  045%=      5-min Rain = 0
KRO1 171726Z 19011KT 34/20 A3003 RMK A01 T03360201  RH  045%=      5-min Rain = 0
KRO1 171727Z 18013KT 34/20 A3003 RMK A01 T03370200  RH  045%=      5-min Rain = 0
KRO1 171728Z 17012KT 34/20 A3003 RMK A01 T03360200  RH  045%=      5-min Rain = 0
KRO1 171729Z 17012G17KT 34/20 A3003 RMK A01 T03350200  RH  045%=      5-min Rain = 0
KRO1 171730Z 18014KT 34/20 A3003 RMK A01 T03360200  RH  045%=      5-min Rain = 0
KRO1 171731Z 20014KT 34/20 A3003 RMK A01 T03370201  RH  045%=      5-min Rain = 0
KRO1 171732Z 18014G20KT 34/20 A3003 RMK A01 T03360202  RH  045%=      5-min Rain = 0
KRO1 171733Z 18014G19KT 34/20 A3003 RMK A01 T03380200  RH  044%=      5-min Rain = 0
KRO1 171734Z 17011KT 34/20 A3003 RMK A01 T03370197  RH  044%=      5-min Rain = 0
KRO1 171735Z 17015KT 34/20 A3003 RMK A01 T03350201  RH  045%=      5-min Rain = 0
KRO1 171736Z 17014KT 34/20 A3003 RMK A01 T03380199  RH  044%=      5-min Rain = 0
KRO1 171737Z 17013KT 34/20 A3003 RMK A01 T03370201  RH  045%=      5-min Rain = 0
KRO1 171738Z 16014KT 34/20 A3003 RMK A01 T03380200  RH  045%=      5-min Rain = 0
KRO1 171739Z 17012G17KT 34/20 A3003 RMK A01 T03360198  RH  044%=      5-min Rain = 0
KRO1 171740Z 15008KT 34/20 A3003 RMK A01 T03350198  RH  045%=      5-min Rain = 0
KRO1 171741Z 20011G16KT 34/20 A3002 RMK A01 T03370200  RH  045%=      5-min Rain = 0
KRO1 171742Z 19014KT 34/20 A3002 RMK A01 T03410200  RH  044%=      5-min Rain = 0
KRO1 171743Z 18012KT 34/20 A3003 RMK A01 T03420199  RH  043%=      5-min Rain = 0
KRO1 171744Z 16014KT 34/20 A3003 RMK A01 T03420199  RH  043%=      5-min Rain = 0
KRO1 171745Z 16013KT 34/20 A3003 RMK A01 T03400199  RH  044%=      5-min Rain = 0
KRO1 171746Z 16013KT 34/20 A3002 RMK A01 T03380198  RH  044%=      5-min Rain = 0
KRO1 171747Z 16015G20KT 34/20 A3002 RMK A01 T03390197  RH  044%=      5-min Rain = 0
KRO1 171748Z 17015KT 34/20 A3002 RMK A01 T03400195  RH  042%=      5-min Rain = 0
KRO1 171749Z 18013KT 34/19 A3002 RMK A01 T03410194  RH  042%=      5-min Rain = 0
KRO1 171750Z 18013KT 34/20 A3003 RMK A01 T03400195  RH  043%=      5-min Rain = 0
KRO1 171751Z 17012KT 34/19 A3002 RMK A01 T03400194  RH  042%=      5-min Rain = 0
KRO1 171752Z 17009KT 34/20 A3002 RMK A01 T03390196  RH  043%=      5-min Rain = 0
KRO1 171753Z 17010KT 34/20 A3002 RMK A01 T03420197  RH  043%=      5-min Rain = 0
KRO1 171754Z 18011G17KT 34/20 A3002 RMK A01 T03410198  RH  043%=      5-min Rain = 0
KRO1 171755Z 18016KT 34/20 A3002 RMK A01 T03410199  RH  043%=      5-min Rain = 0
KRO1 171756Z 18015KT 34/20 A3002 RMK A01 T03410199  RH  043%=      5-min Rain = 0
KRO1 171757Z 17012KT 34/20 A3002 RMK A01 T03390197  RH  043%=      5-min Rain = 0
KRO1 171758Z 18010KT 34/20 A3002 RMK A01 T03370198  RH  044%=      5-min Rain = 0
KRO1 171759Z 18009KT 34/20 A3002 RMK A01 T03370200  RH  045%=      5-min Rain = 0
KRO1 171800Z 17008KT 34/20 A3002 RMK A01 T03410203  RH  044%=      5-min Rain = 0
KRO1 171801Z 15014KT 35/20 A3002 RMK A01 T03460201  RH  043%=      5-min Rain = 0
KRO1 171802Z 15015KT 35/20 A3002 RMK A01 T03470199  RH  042%=      5-min Rain = 0
KRO1 171803Z 17014KT 35/20 A3002 RMK A01 T03460199  RH  042%=      5-min Rain = 0
KRO1 171804Z 16011KT 34/20 A3002 RMK A01 T03430199  RH  043%=      5-min Rain = 0
KRO1 171805Z 17009KT 34/20 A3002 RMK A01 T03420200  RH  043%=      5-min Rain = 0
KRO1 171806Z 18008KT 34/20 A3002 RMK A01 T03420200  RH  043%=      5-min Rain = 0
KRO1 171807Z 16009KT 34/20 A3002 RMK A01 T03430201  RH  043%=      5-min Rain = 0
KRO1 171808Z 17016KT 34/20 A3002 RMK A01 T03440196  RH  042%=      5-min Rain = 0
KRO1 171809Z 17015KT 35/20 A3002 RMK A01 T03480195  RH  041%=      5-min Rain = 0
KRO1 171810Z 17012KT 35/19 A3002 RMK A01 T03490192  RH  040%=      5-min Rain = 0
KRO1 171811Z 18010KT 35/19 A3002 RMK A01 T03460193  RH  041%=      5-min Rain = 0
KRO1 171812Z 17011KT 35/20 A3002 RMK A01 T03460195  RH  041%=      5-min Rain = 0
KRO1 171813Z 19011G16KT 35/19 A3002 RMK A01 T03470193  RH  040%=      5-min Rain = 0
KRO1 171814Z 17018KT 35/20 A3002 RMK A01 T03460195  RH  041%=      5-min Rain = 0
KRO1 171815Z 16015KT 35/19 A3002 RMK A01 T03460194  RH  041%=      5-min Rain = 0
KRO1 171816Z 16012KT 35/19 A3002 RMK A01 T03450194  RH  041%=      5-min Rain = 0
KRO1 171817Z 16015KT 34/19 A3002 RMK A01 T03440192  RH  041%=      5-min Rain = 0
KRO1 171818Z 17012KT 34/19 A3002 RMK A01 T03440192  RH  041%=      5-min Rain = 0
KRO1 171819Z 17011G17KT 35/19 A3002 RMK A01 T03450191  RH  040%=      5-min Rain = 0
KRO1 171820Z 17014KT 35/19 A3002 RMK A01 T03470192  RH  040%=      5-min Rain = 0
KRO1 171821Z 17013KT 35/19 A3002 RMK A01 T03510191  RH  039%=      5-min Rain = 0
KRO1 171822Z 16015KT 35/19 A3002 RMK A01 T03540187  RH  037%=      5-min Rain = 0
KRO1 171823Z 16015KT 35/19 A3002 RMK A01 T03520186  RH  038%=      5-min Rain = 0
KRO1 171824Z 17014KT 35/19 A3002 RMK A01 T03510190  RH  039%=      5-min Rain = 0
KRO1 171825Z 17012KT 35/19 A3002 RMK A01 T03480190  RH  039%=      5-min Rain = 0
KRO1 171826Z 18010KT 35/19 A3002 RMK A01 T03460190  RH  040%=      5-min Rain = 0
KRO1 171827Z 17010KT 34/19 A3002 RMK A01 T03440194  RH  041%=      5-min Rain = 0
KRO1 171828Z 16010KT 35/19 A3002 RMK A01 T03450193  RH  041%=      5-min Rain = 0
KRO1 171829Z 15009G14KT 35/19 A3002 RMK A01 T03460193  RH  041%=      5-min Rain = 0
KRO1 171830Z 15015KT 35/19 A3002 RMK A01 T03470190  RH  040%=      5-min Rain = 0
KRO1 171831Z 15015KT 35/19 A3002 RMK A01 T03490190  RH  039%=      5-min Rain = 0
KRO1 171832Z 16014KT 35/19 A3002 RMK A01 T03490191  RH  040%=      5-min Rain = 0
KRO1 171833Z 16013KT 35/19 A3001 RMK A01 T03500191  RH  039%=      5-min Rain = 0
KRO1 171834Z 18013KT 35/19 A3002 RMK A01 T03510192  RH  039%=      5-min Rain = 0
KRO1 171835Z 19016KT 35/19 A3001 RMK A01 T03510188  RH  038%=      5-min Rain = 0
KRO1 171836Z 18013KT 35/19 A3001 RMK A01 T03500186  RH  038%=      5-min Rain = 0
KRO1 171837Z 19015KT 35/19 A3001 RMK A01 T03500188  RH  038%=      5-min Rain = 0
KRO1 171838Z 19014KT 35/19 A3001 RMK A01 T03510189  RH  039%=      5-min Rain = 0
KRO1 171839Z 18015KT 35/19 A3001 RMK A01 T03490187  RH  038%=      5-min Rain = 0
KRO1 171840Z 19016KT 35/19 A3001 RMK A01 T03500186  RH  038%=      5-min Rain = 0
KRO1 171841Z 17013KT 35/19 A3001 RMK A01 T03520187  RH  038%=      5-min Rain = 0
KRO1 171842Z 18013G18KT 35/19 A3001 RMK A01 T03530191  RH  039%=      5-min Rain = 0
KRO1 171843Z 18012KT 36/19 A3001 RMK A01 T03550188  RH  037%=      5-min Rain = 0
KRO1 171844Z 19012KT 35/19 A3001 RMK A01 T03530191  RH  039%=      5-min Rain = 0
KRO1 171845Z 20012KT 35/19 A3001 RMK A01 T03530192  RH  039%=      5-min Rain = 0
KRO1 171846Z 18013KT 35/19 A3001 RMK A01 T03520191  RH  039%=      5-min Rain = 0
KRO1 171847Z 18018KT 35/19 A3001 RMK A01 T03500189  RH  039%=      5-min Rain = 0
KRO1 171848Z 19018KT 35/19 A3001 RMK A01 T03510186  RH  038%=      5-min Rain = 0
KRO1 171849Z 18015KT 35/18 A3001 RMK A01 T03530182  RH  037%=      5-min Rain = 0
KRO1 171850Z 18015KT 35/18 A3001 RMK A01 T03530183  RH  037%=      5-min Rain = 0
KRO1 171851Z 17015KT 35/18 A3001 RMK A01 T03520183  RH  037%=      5-min Rain = 0
KRO1 171852Z 18014KT 35/18 A3001 RMK A01 T03500180  RH  037%=      5-min Rain = 0
KRO1 171853Z 19013KT 35/19 A3001 RMK A01 T03500185  RH  038%=      5-min Rain = 0
KRO1 171854Z 18012KT 35/19 A3001 RMK A01 T03510187  RH  038%=      5-min Rain = 0
KRO1 171855Z 16010KT 35/19 A3001 RMK A01 T03510189  RH  039%=      5-min Rain = 0
KRO1 171856Z 14012G17KT 35/19 A30 RMK A01 T03510191  RH  039%=      5-min Rain = 0
KRO1 171857Z 16007KT 35/19 A30 RMK A01 T03480190  RH  039%=      5-min Rain = 0
KRO1 171858Z 19012KT 35/19 A30 RMK A01 T03460191  RH  040%=      5-min Rain = 0
KRO1 171859Z 18011KT 35/19 A30 RMK A01 T03460193  RH  041%=      5-min Rain = 0
KRO1 171900Z 16012KT 35/19 A30 RMK A01 T03500193  RH  040%=      5-min Rain = 0
KRO1 171901Z 15013KT 35/19 A30 RMK A01 T03510191  RH  039%=      5-min Rain = 0
KRO1 171902Z 15015G21KT 35/19 A30 RMK A01 T03530192  RH  039%=      5-min Rain = 0
KRO1 171903Z 15017KT 36/19 A30 RMK A01 T03560190  RH  038%=      5-min Rain = 0
KRO1 171904Z 16015KT 36/19 A30 RMK A01 T03550189  RH  038%=      5-min Rain = 0
KRO1 171905Z 16013KT 35/19 A30 RMK A01 T03540189  RH  038%=      5-min Rain = 0
KRO1 171906Z 16012KT 35/19 A30 RMK A01 T03540190  RH  038%=      5-min Rain = 0
KRO1 171907Z 17010KT 35/19 A30 RMK A01 T03540190  RH  038%=      5-min Rain = 0
KRO1 171908Z 16015KT 35/19 A30 RMK A01 T03530190  RH  038%=      5-min Rain = 0
KRO1 171909Z 17018KT 36/19 A30 RMK A01 T03550190  RH  038%=      5-min Rain = 0
KRO1 171910Z 17014KT 36/19 A30 RMK A01 T03550190  RH  038%=      5-min Rain = 0
KRO1 171911Z 16012KT 35/19 A30 RMK A01 T03540191  RH  038%=      5-min Rain = 0
KRO1 171912Z 16012KT 36/19 A30 RMK A01 T03550191  RH  038%=      5-min Rain = 0
KRO1 171913Z 15010KT 36/19 A30 RMK A01 T03550191  RH  038%=      5-min Rain = 0
KRO1 171914Z 14008KT 36/19 A30 RMK A01 T03550189  RH  038%=      5-min Rain = 0
KRO1 171915Z 16013KT 35/19 A30 RMK A01 T03520190  RH  039%=      5-min Rain = 0
KRO1 171916Z 17014KT 35/19 A30 RMK A01 T03520189  RH  038%=      5-min Rain = 0
KRO1 171917Z 15014KT 36/19 A30 RMK A01 T03550190  RH  038%=      5-min Rain = 0
KRO1 171918Z 14014KT 36/19 A30 RMK A01 T03560189  RH  038%=      5-min Rain = 0
KRO1 171919Z 14010KT 36/19 A30 RMK A01 T03550190  RH  038%=      5-min Rain = 0
KRO1 171920Z 15012KT 36/19 A30 RMK A01 T03550189  RH  038%=      5-min Rain = 0
KRO1 171921Z 15011G16KT 35/19 A30 RMK A01 T03540188  RH  038%=      5-min Rain = 0
KRO1 171922Z 14016KT 35/19 A2999 RMK A01 T03530188  RH  038%=      5-min Rain = 0
KRO1 171923Z 13015KT 36/19 A2999 RMK A01 T03550187  RH  037%=      5-min Rain = 0
KRO1 171924Z 14015KT 35/18 A2999 RMK A01 T03530184  RH  037%=      5-min Rain = 0
KRO1 171925Z 13015KT 35/19 A2999 RMK A01 T03510185  RH  038%=      5-min Rain = 0
KRO1 171926Z 14015KT 35/19 A2999 RMK A01 T03530187  RH  038%=      5-min Rain = 0
KRO1 171927Z 15017KT 36/19 A2999 RMK A01 T03570187  RH  037%=      5-min Rain = 0
KRO1 171928Z 17017KT 36/19 A2999 RMK A01 T03570190  RH  038%=      5-min Rain = 0
KRO1 171929Z 17015KT 36/19 A2999 RMK A01 T03550190  RH  038%=      5-min Rain = 0
KRO1 171930Z 17012KT 35/19 A2999 RMK A01 T03530191  RH  039%=      5-min Rain = 0
KRO1 171931Z 19007KT 35/19 A2999 RMK A01 T03510191  RH  039%=      5-min Rain = 0
KRO1 171932Z 16007KT 35/19 A2999 RMK A01 T03490190  RH  039%=      5-min Rain = 0
KRO1 171933Z 15013G19KT 35/19 A2999 RMK A01 T03490189  RH  039%=      5-min Rain = 0
KRO1 171934Z 14014G19KT 35/19 A2999 RMK A01 T03520185  RH  037%=      5-min Rain = 0
KRO1 171935Z 14014KT 35/18 A2999 RMK A01 T03540184  RH  037%=      5-min Rain = 0
KRO1 171936Z 14017KT 36/18 A2999 RMK A01 T03550184  RH  037%=      5-min Rain = 0
KRO1 171937Z 15016KT 36/18 A2999 RMK A01 T03560183  RH  036%=      5-min Rain = 0
KRO1 171938Z 16016G21KT 36/18 A2999 RMK A01 T03550183  RH  036%=      5-min Rain = 0
KRO1 171939Z 16017KT 35/19 A2999 RMK A01 T03540185  RH  037%=      5-min Rain = 0
KRO1 171940Z 17016KT 35/19 A2999 RMK A01 T03540186  RH  037%=      5-min Rain = 0
KRO1 171941Z 17011KT 35/18 A2999 RMK A01 T03540184  RH  037%=      5-min Rain = 0
KRO1 171942Z 15014G23KT 35/19 A2999 RMK A01 T03540188  RH  038%=      5-min Rain = 0
KRO1 171943Z 15015G20KT 36/18 A2999 RMK A01 T03560180  RH  036%=      5-min Rain = 0
KRO1 171944Z 14012KT 35/18 A2999 RMK A01 T03540180  RH  036%=      5-min Rain = 0
KRO1 171945Z 17016KT 36/18 A2999 RMK A01 T03550183  RH  036%=      5-min Rain = 0
KRO1 171946Z 17017KT 36/19 A2999 RMK A01 T03580187  RH  037%=      5-min Rain = 0
KRO1 171947Z 16014KT 36/18 A2999 RMK A01 T03590184  RH  036%=      5-min Rain = 0
KRO1 171948Z 16017KT 36/18 A2999 RMK A01 T03560178  RH  035%=      5-min Rain = 0
KRO1 171949Z 16015KT 36/18 A2999 RMK A01 T03550176  RH  035%=      5-min Rain = 0
KRO1 171950Z 17012KT 36/18 A2999 RMK A01 T03560176  RH  035%=      5-min Rain = 0
KRO1 171951Z 17010KT 36/18 A2999 RMK A01 T03560182  RH  036%=      5-min Rain = 0
KRO1 171952Z 16011KT 36/18 A2999 RMK A01 T03560179  RH  035%=      5-min Rain = 0
KRO1 171953Z 15013KT 36/18 A2998 RMK A01 T03570175  RH  034%=      5-min Rain = 0
KRO1 171954Z 15016G21KT 36/18 A2998 RMK A01 T03570181  RH  036%=      5-min Rain = 0
KRO1 171955Z 15014G20KT 36/19 A2998 RMK A01 T03550185  RH  037%=      5-min Rain = 0
KRO1 171956Z 15017KT 36/18 A2998 RMK A01 T03560183  RH  036%=      5-min Rain = 0
KRO1 171957Z 16016KT 36/18 A2998 RMK A01 T03570181  RH  035%=      5-min Rain = 0
KRO1 171958Z 17015KT 36/17 A2998 RMK A01 T03590171  RH  033%=      5-min Rain = 0
KRO1 171959Z 18015KT 36/18 A2998 RMK A01 T03600178  RH  034%=      5-min Rain = 0
KRO1 172000Z 17013KT 36/18 A2998 RMK A01 T03590181  RH  035%=      5-min Rain = 0
KRO1 172001Z 17013KT 36/18 A2998 RMK A01 T03580176  RH  034%=      5-min Rain = 0
KRO1 172002Z 17014KT 36/17 A2998 RMK A01 T03590173  RH  033%=      5-min Rain = 0
KRO1 172003Z 18013KT 36/17 A2998 RMK A01 T03590173  RH  033%=      5-min Rain = 0
KRO1 172004Z 18014KT 36/18 A2998 RMK A01 T03590175  RH  034%=      5-min Rain = 0
KRO1 172005Z 18013KT 36/18 A2998 RMK A01 T03580176  RH  034%=      5-min Rain = 0
KRO1 172006Z 17012G17KT 36/17 A2998 RMK A01 T03570171  RH  033%=      5-min Rain = 0
KRO1 172007Z 16014KT 35/17 A2998 RMK A01 T03540174  RH  034%=      5-min Rain = 0
KRO1 172008Z 15015KT 36/17 A2998 RMK A01 T03570174  RH  034%=      5-min Rain = 0
KRO1 172009Z 17016KT 36/18 A2998 RMK A01 T03610179  RH  034%=      5-min Rain = 0
KRO1 172010Z 17014KT 36/18 A2998 RMK A01 T03610178  RH  034%=      5-min Rain = 0
KRO1 172011Z 16015KT 36/18 A2998 RMK A01 T03580182  RH  036%=      5-min Rain = 0
KRO1 172012Z 17015KT 36/18 A2998 RMK A01 T03580180  RH  035%=      5-min Rain = 0
KRO1 172013Z 17013KT 36/18 A2998 RMK A01 T03600181  RH  035%=      5-min Rain = 0
KRO1 172014Z 18013KT 36/18 A2998 RMK A01 T03580184  RH  036%=      5-min Rain = 0
KRO1 172015Z 17017KT 36/18 A2997 RMK A01 T03580184  RH  036%=      5-min Rain = 0
KRO1 172016Z 18013KT 36/18 A2997 RMK A01 T03580183  RH  036%=      5-min Rain = 0
KRO1 172017Z 18017G23KT 36/18 A2997 RMK A01 T03550183  RH  036%=      5-min Rain = 0
KRO1 172018Z 17017KT 36/18 A2997 RMK A01 T03560177  RH  035%=      5-min Rain = 0
KRO1 172019Z 18016KT 36/17 A2997 RMK A01 T03570173  RH  034%=      5-min Rain = 0
KRO1 172020Z 18013KT 36/18 A2997 RMK A01 T03570176  RH  034%=      5-min Rain = 0
KRO1 172021Z 16014G19KT 36/18 A2997 RMK A01 T03560181  RH  036%=      5-min Rain = 0
KRO1 172022Z 16012KT 36/18 A2997 RMK A01 T03550180  RH  036%=      5-min Rain = 0
KRO1 172023Z 16008KT 35/18 A2997 RMK A01 T03540181  RH  036%=      5-min Rain = 0
KRO1 172024Z 17013G18KT 35/18 A2997 RMK A01 T03540184  RH  037%=      5-min Rain = 0
KRO1 172025Z 17018KT 36/19 A2997 RMK A01 T03550185  RH  037%=      5-min Rain = 0
KRO1 172026Z 18015KT 36/19 A2997 RMK A01 T03580185  RH  036%=      5-min Rain = 0
KRO1 172027Z 16015KT 36/19 A2997 RMK A01 T03580186  RH  036%=      5-min Rain = 0
KRO1 172028Z 16016KT 36/18 A2997 RMK A01 T03580184  RH  036%=      5-min Rain = 0
KRO1 172029Z 16011KT 36/18 A2997 RMK A01 T03560184  RH  036%=      5-min Rain = 0
KRO1 172030Z 17012KT 35/18 A2997 RMK A01 T03540184  RH  037%=      5-min Rain = 0
KRO1 172031Z 16012KT 35/19 A2997 RMK A01 T03540186  RH  037%=      5-min Rain = 0
KRO1 172032Z 16010KT 36/19 A2997 RMK A01 T03570187  RH  037%=      5-min Rain = 0
KRO1 172033Z 16011KT 36/18 A2997 RMK A01 T03600184  RH  036%=      5-min Rain = 0
KRO1 172034Z 16016KT 36/19 A2997 RMK A01 T03590185  RH  036%=      5-min Rain = 0
KRO1 172035Z 17014KT 36/19 A2997 RMK A01 T03620188  RH  036%=      5-min Rain = 0
KRO1 172036Z 17015G22KT 36/19 A2996 RMK A01 T03640190  RH  036%=      5-min Rain = 0
KRO1 172037Z 17016KT 36/19 A2997 RMK A01 T03640189  RH  036%=      5-min Rain = 0
KRO1 172038Z 17015KT 36/19 A2996 RMK A01 T03610189  RH  036%=      5-min Rain = 0
KRO1 172039Z 17013KT 36/19 A2997 RMK A01 T03610189  RH  037%=      5-min Rain = 0
KRO1 172040Z 16013G20KT 36/19 A2996 RMK A01 T03620189  RH  036%=      5-min Rain = 0
KRO1 172041Z 15017KT 37/19 A2996 RMK A01 T03660186  RH  035%=      5-min Rain = 0
KRO1 172042Z 16015KT 37/18 A2996 RMK A01 T03660182  RH  034%=      5-min Rain = 0
KRO1 172043Z 15016G22KT 36/18 A2996 RMK A01 T03640183  RH  035%=      5-min Rain = 0
KRO1 172044Z 16019KT 37/18 A2996 RMK A01 T03650179  RH  034%=      5-min Rain = 0
KRO1 172045Z 16017KT 37/18 A2996 RMK A01 T03650179  RH  033%=      5-min Rain = 0
KRO1 172046Z 16015KT 36/18 A2996 RMK A01 T03630178  RH  034%=      5-min Rain = 0
KRO1 172047Z 16016KT 36/18 A2996 RMK A01 T03610178  RH  034%=      5-min Rain = 0
KRO1 172048Z 15014KT 36/18 A2996 RMK A01 T03610177  RH  034%=      5-min Rain = 0
KRO1 172049Z 16019KT 36/18 A2996 RMK A01 T03610180  RH  034%=      5-min Rain = 0
KRO1 172050Z 15017KT 36/18 A2996 RMK A01 T03610180  RH  035%=      5-min Rain = 0
KRO1 172051Z 14017KT 36/18 A2996 RMK A01 T03610179  RH  034%=      5-min Rain = 0
KRO1 172052Z 13016KT 36/18 A2996 RMK A01 T03610178  RH  034%=      5-min Rain = 0
KRO1 172053Z 14011KT 36/18 A2996 RMK A01 T03590180  RH  035%=      5-min Rain = 0
KRO1 172054Z 15014KT 36/18 A2996 RMK A01 T03600181  RH  035%=      5-min Rain = 0
KRO1 172055Z 16013G18KT 36/18 A2996 RMK A01 T03610181  RH  035%=      5-min Rain = 0
KRO1 172056Z 18016KT 36/18 A2996 RMK A01 T03620184  RH  035%=      5-min Rain = 0
KRO1 172057Z 18016KT 37/19 A2996 RMK A01 T03650185  RH  035%=      5-min Rain = 0
KRO1 172058Z 19016KT 37/19 A2996 RMK A01 T03650185  RH  035%=      5-min Rain = 0
KRO1 172059Z 19013KT 36/19 A2996 RMK A01 T03640185  RH  035%=      5-min Rain = 0
KRO1 172100Z 17011KT 36/19 A2995 RMK A01 T03640187  RH  036%=      5-min Rain = 0
KRO1 172101Z 16014G21KT 37/19 A2995 RMK A01 T03660185  RH  035%=      5-min Rain = 0
KRO1 172102Z 16018KT 37/18 A2995 RMK A01 T03650175  RH  033%=      5-min Rain = 0
KRO1 172103Z 16014KT 36/17 A2995 RMK A01 T03620172  RH  033%=      5-min Rain = 0
KRO1 172104Z 18019KT 36/18 A2995 RMK A01 T03620175  RH  033%=      5-min Rain = 0
KRO1 172105Z 17017KT 36/18 A2995 RMK A01 T03640175  RH  033%=      5-min Rain = 0
KRO1 172106Z 17017KT 36/18 A2995 RMK A01 T03640176  RH  033%=      5-min Rain = 0
KRO1 172107Z 18020KT 36/18 A2995 RMK A01 T03640176  RH  033%=      5-min Rain = 0
KRO1 172108Z 18020G25KT 36/18 A2995 RMK A01 T03640175  RH  033%=      5-min Rain = 0
KRO1 172109Z 17017KT 36/18 A2995 RMK A01 T03640175  RH  033%=      5-min Rain = 0
KRO1 172110Z 16016KT 36/17 A2995 RMK A01 T03620173  RH  033%=      5-min Rain = 0
KRO1 172111Z 17015KT 36/17 A2995 RMK A01 T03600172  RH  033%=      5-min Rain = 0
KRO1 172112Z 16015KT 36/17 A2995 RMK A01 T03610173  RH  033%=      5-min Rain = 0
KRO1 172113Z 17016G22KT 36/18 A2995 RMK A01 T03610176  RH  034%=      5-min Rain = 0
KRO1 172114Z 18016KT 36/18 A2995 RMK A01 T03610177  RH  034%=      5-min Rain = 0
KRO1 172115Z 18015KT 36/18 A2995 RMK A01 T03620177  RH  034%=      5-min Rain = 0
KRO1 172116Z 17016KT 36/18 A2995 RMK A01 T03630178  RH  034%=      5-min Rain = 0
KRO1 172117Z 16019G24KT 36/17 A2995 RMK A01 T03640174  RH  033%=      5-min Rain = 0
KRO1 172118Z 16017KT 36/17 A2995 RMK A01 T03630174  RH  033%=      5-min Rain = 0
KRO1 172119Z 15014KT 36/18 A2995 RMK A01 T03610177  RH  034%=      5-min Rain = 0
KRO1 172120Z 14013KT 36/18 A2995 RMK A01 T03580178  RH  035%=      5-min Rain = 0
KRO1 172121Z 14012KT 36/18 A2995 RMK A01 T03590176  RH  034%=      5-min Rain = 0
KRO1 172122Z 17011KT 36/18 A2995 RMK A01 T03590178  RH  034%=      5-min Rain = 0
KRO1 172123Z 17010KT 36/18 A2995 RMK A01 T03600180  RH  035%=      5-min Rain = 0
KRO1 172124Z 15012G17KT 36/18 A2995 RMK A01 T03610181  RH  035%=      5-min Rain = 0
KRO1 172125Z 15016KT 36/18 A2995 RMK A01 T03610179  RH  034%=      5-min Rain = 0
KRO1 172126Z 17017KT 36/17 A2995 RMK A01 T03600172  RH  033%=      5-min Rain = 0
KRO1 172127Z 17012KT 36/17 A2995 RMK A01 T03600170  RH  033%=      5-min Rain = 0
KRO1 172128Z 18014KT 36/17 A2995 RMK A01 T03590173  RH  033%=      5-min Rain = 0
KRO1 172129Z 18019KT 36/17 A2994 RMK A01 T03590173  RH  033%=      5-min Rain = 0
KRO1 172130Z 18016KT 36/17 A2995 RMK A01 T03600174  RH  033%=      5-min Rain = 0
KRO1 172131Z 18017KT 36/17 A2995 RMK A01 T03610172  RH  033%=      5-min Rain = 0
KRO1 172132Z 18015KT 36/17 A2995 RMK A01 T03620172  RH  033%=      5-min Rain = 0
KRO1 172133Z 18017KT 36/18 A2995 RMK A01 T03620175  RH  033%=      5-min Rain = 0
KRO1 172134Z 18011KT 36/18 A2995 RMK A01 T03640177  RH  033%=      5-min Rain = 0
KRO1 172135Z 18013KT 37/18 A2995 RMK A01 T03650179  RH  034%=      5-min Rain = 0
KRO1 172136Z 17012KT 37/18 A2994 RMK A01 T03650177  RH  033%=      5-min Rain = 0
KRO1 172137Z 16012G17KT 37/18 A2994 RMK A01 T03650181  RH  034%=      5-min Rain = 0
KRO1 172138Z 15017KT 37/18 A2994 RMK A01 T03660179  RH  033%=      5-min Rain = 0
KRO1 172139Z 15017KT 37/18 A2994 RMK A01 T03660177  RH  033%=      5-min Rain = 0
KRO1 172140Z 15016KT 37/18 A2994 RMK A01 T03660176  RH  033%=      5-min Rain = 0
KRO1 172141Z 16016KT 36/18 A2994 RMK A01 T03640177  RH  033%=      5-min Rain = 0
KRO1 172142Z 16013KT 36/18 A2994 RMK A01 T03630179  RH  034%=      5-min Rain = 0
KRO1 172143Z 15016KT 36/18 A2994 RMK A01 T03610178  RH  034%=      5-min Rain = 0
KRO1 172144Z 16014KT 36/18 A2994 RMK A01 T03610178  RH  034%=      5-min Rain = 0
KRO1 172145Z 14014KT 36/18 A2994 RMK A01 T03610178  RH  034%=      5-min Rain = 0
KRO1 172146Z 14015KT 36/18 A2994 RMK A01 T03610180  RH  034%=      5-min Rain = 0
KRO1 172147Z 14017KT 36/18 A2994 RMK A01 T03630177  RH  033%=      5-min Rain = 0
KRO1 172148Z 15015KT 36/18 A2994 RMK A01 T03630177  RH  033%=      5-min Rain = 0
KRO1 172149Z 16014KT 36/18 A2994 RMK A01 T03620178  RH  034%=      5-min Rain = 0
KRO1 172150Z 19015KT 36/18 A2994 RMK A01 T03620179  RH  034%=      5-min Rain = 0
KRO1 172151Z 17015KT 36/18 A2994 RMK A01 T03620180  RH  034%=      5-min Rain = 0
KRO1 172152Z 16015KT 36/18 A2994 RMK A01 T03620180  RH  034%=      5-min Rain = 0
KRO1 172153Z 16011KT 36/18 A2994 RMK A01 T03610181  RH  035%=      5-min Rain = 0
KRO1 172154Z 16016G22KT 36/18 A2994 RMK A01 T03620182  RH  035%=      5-min Rain = 0
KRO1 172155Z 15011KT 36/18 A2994 RMK A01 T03620180  RH  034%=      5-min Rain = 0
KRO1 172156Z 16014G19KT 36/18 A2994 RMK A01 T03590184  RH  036%=      5-min Rain = 0
KRO1 172157Z 16017KT 36/18 A2994 RMK A01 T03600182  RH  035%=      5-min Rain = 0
KRO1 172158Z 14019KT 36/18 A2994 RMK A01 T03600181  RH  035%=      5-min Rain = 0
KRO1 172159Z 15017KT 36/18 A2994 RMK A01 T03600177  RH  034%=      5-min Rain = 0
KRO1 172200Z 15018KT 36/18 A2994 RMK A01 T03610180  RH  035%=      5-min Rain = 0
KRO1 172201Z 17014KT 36/18 A2994 RMK A01 T03630179  RH  034%=      5-min Rain = 0
KRO1 172202Z 15013KT 36/18 A2994 RMK A01 T03610182  RH  035%=      5-min Rain = 0
KRO1 172203Z 15018KT 36/18 A2994 RMK A01 T03620180  RH  034%=      5-min Rain = 0
KRO1 172204Z 15018KT 36/18 A2994 RMK A01 T03620177  RH  034%=      5-min Rain = 0
KRO1 172205Z 15018KT 36/18 A2994 RMK A01 T03620175  RH  033%=      5-min Rain = 0
KRO1 172206Z 16014KT 36/18 A2994 RMK A01 T03630175  RH  033%=      5-min Rain = 0
KRO1 172207Z 17017KT 36/18 A2994 RMK A01 T03630177  RH  033%=      5-min Rain = 0
KRO1 172208Z 17017KT 37/18 A2994 RMK A01 T03650176  RH  033%=      5-min Rain = 0
KRO1 172209Z 17016KT 36/17 A2994 RMK A01 T03640174  RH  033%=      5-min Rain = 0
KRO1 172210Z 18013KT 36/17 A2994 RMK A01 T03610174  RH  033%=      5-min Rain = 0
KRO1 172211Z 17011KT 36/17 A2994 RMK A01 T03610174  RH  033%=      5-min Rain = 0
KRO1 172212Z 17014KT 36/17 A2994 RMK A01 T03610174  RH  033%=      5-min Rain = 0
KRO1 172213Z 16014KT 36/17 A2994 RMK A01 T03620169  RH  032%=      5-min Rain = 0
KRO1 172214Z 16013KT 36/17 A2994 RMK A01 T03620170  RH  032%=      5-min Rain = 0
KRO1 172215Z 13015G22KT 36/17 A2993 RMK A01 T03620171  RH  033%=      5-min Rain = 0
KRO1 172216Z 14017KT 36/17 A2993 RMK A01 T03610171  RH  033%=      5-min Rain = 0
KRO1 172217Z 14012KT 36/17 A2993 RMK A01 T03610173  RH  033%=      5-min Rain = 0
KRO1 172218Z 16013KT 36/17 A2993 RMK A01 T03610174  RH  033%=      5-min Rain = 0
KRO1 172219Z 14015KT 36/17 A2993 RMK A01 T03620172  RH  033%=      5-min Rain = 0
KRO1 172220Z 14016KT 36/17 A2993 RMK A01 T03620171  RH  032%=      5-min Rain = 0
KRO1 172221Z 17019KT 36/17 A2993 RMK A01 T03620173  RH  033%=      5-min Rain = 0
KRO1 172222Z 18019KT 36/17 A2993 RMK A01 T03620173  RH  033%=      5-min Rain = 0
KRO1 172223Z 17018KT 36/17 A2993 RMK A01 T03610173  RH  033%=      5-min Rain = 0
KRO1 172224Z 16018KT 36/17 A2993 RMK A01 T03600174  RH  033%=      5-min Rain = 0
KRO1 172225Z 15019KT 36/17 A2993 RMK A01 T03590173  RH  033%=      5-min Rain = 0
KRO1 172226Z 16017KT 36/17 A2993 RMK A01 T03580172  RH  033%=      5-min Rain = 0
KRO1 172227Z 15017KT 36/17 A2993 RMK A01 T03570173  RH  034%=      5-min Rain = 0
KRO1 172228Z 14016KT 36/17 A2993 RMK A01 T03580173  RH  034%=      5-min Rain = 0
KRO1 172229Z 14019KT 36/17 A2993 RMK A01 T03590173  RH  033%=      5-min Rain = 0
KRO1 172230Z 15019KT 36/17 A2993 RMK A01 T03600174  RH  033%=      5-min Rain = 0
KRO1 172231Z 14018KT 36/17 A2993 RMK A01 T03600174  RH  033%=      5-min Rain = 0
KRO1 172232Z 14020KT 36/17 A2993 RMK A01 T03600174  RH  033%=      5-min Rain = 0
KRO1 172233Z 14018KT 36/17 A2993 RMK A01 T03610174  RH  033%=      5-min Rain = 0
KRO1 172234Z 16020KT 36/17 A2993 RMK A01 T03600174  RH  033%=      5-min Rain = 0
KRO1 172235Z 16019KT 36/17 A2993 RMK A01 T03600174  RH  033%=      5-min Rain = 0
KRO1 172236Z 16021KT 36/17 A2993 RMK A01 T03600173  RH  033%=      5-min Rain = 0
KRO1 172237Z 15020KT 36/17 A2993 RMK A01 T03580173  RH  034%=      5-min Rain = 0
KRO1 172238Z 14020KT 36/17 A2993 RMK A01 T03580172  RH  033%=      5-min Rain = 0
KRO1 172239Z 15019KT 36/17 A2993 RMK A01 T03590170  RH  033%=      5-min Rain = 0
KRO1 172240Z 14016KT 36/17 A2993 RMK A01 T03580171  RH  033%=      5-min Rain = 0
KRO1 172241Z 14018KT 36/17 A2993 RMK A01 T03580168  RH  033%=      5-min Rain = 0
KRO1 172242Z 16018KT 36/17 A2993 RMK A01 T03580170  RH  033%=      5-min Rain = 0
KRO1 172243Z 17017KT 36/17 A2993 RMK A01 T03590169  RH  032%=      5-min Rain = 0
KRO1 172244Z 17019KT 36/17 A2993 RMK A01 T03590168  RH  032%=      5-min Rain = 0
KRO1 172245Z 17015KT 36/17 A2993 RMK A01 T03580169  RH  033%=      5-min Rain = 0
KRO1 172246Z 15014KT 36/17 A2993 RMK A01 T03580171  RH  033%=      5-min Rain = 0
KRO1 172247Z 15016KT 36/17 A2993 RMK A01 T03600172  RH  033%=      5-min Rain = 0
KRO1 172248Z 14017KT 36/17 A2993 RMK A01 T03620168  RH  032%=      5-min Rain = 0
KRO1 172249Z 14017KT 36/17 A2993 RMK A01 T03620167  RH  032%=      5-min Rain = 0
KRO1 172250Z 15015KT 36/16 A2993 RMK A01 T03600164  RH  031%=      5-min Rain = 0
KRO1 172251Z 16018G23KT 36/17 A2993 RMK A01 T03600166  RH  032%=      5-min Rain = 0
KRO1 172252Z 16018KT 36/16 A2993 RMK A01 T03610161  RH  031%=      5-min Rain = 0
KRO1 172253Z 15019KT 36/16 A2993 RMK A01 T03620161  RH  030%=      5-min Rain = 0
KRO1 172254Z 16018KT 36/16 A2993 RMK A01 T03610160  RH  030%=      5-min Rain = 0
KRO1 172255Z 16017KT 36/16 A2993 RMK A01 T03600164  RH  031%=      5-min Rain = 0
KRO1 172256Z 16017KT 36/16 A2992 RMK A01 T03590164  RH  031%=      5-min Rain = 0
KRO1 172257Z 16017G22KT 36/16 A2992 RMK A01 T03570164  RH  032%=      5-min Rain = 0
KRO1 172258Z 17018KT 36/17 A2992 RMK A01 T03560166  RH  032%=      5-min Rain = 0
KRO1 172259Z 17017KT 36/17 A2992 RMK A01 T03560167  RH  033%=      5-min Rain = 0
KRO1 172300Z 16014KT 36/17 A2992 RMK A01 T03560168  RH  033%=      5-min Rain = 0
KRO1 172301Z 16015KT 36/17 A2992 RMK A01 T03560170  RH  033%=      5-min Rain = 0
KRO1 172302Z 16016KT 36/17 A2992 RMK A01 T03560173  RH  034%=      5-min Rain = 0
KRO1 172303Z 17017KT 36/17 A2992 RMK A01 T03570173  RH  034%=      5-min Rain = 0
KRO1 172304Z 18014KT 36/17 A2992 RMK A01 T03570174  RH  034%=      5-min Rain = 0
KRO1 172305Z 17015G20KT 36/17 A2992 RMK A01 T03560174  RH  034%=      5-min Rain = 0
KRO1 172306Z 16020KT 36/17 A2992 RMK A01 T03560173  RH  034%=      5-min Rain = 0
KRO1 172307Z 17017KT 36/17 A2992 RMK A01 T03560170  RH  033%=      5-min Rain = 0
KRO1 172308Z 17018KT 36/17 A2992 RMK A01 T03550168  RH  033%=      5-min Rain = 0
KRO1 172309Z 15019KT 36/17 A2992 RMK A01 T03560169  RH  033%=      5-min Rain = 0
KRO1 172310Z 14015KT 36/17 A2992 RMK A01 T03570169  RH  033%=      5-min Rain = 0
KRO1 172311Z 15020KT 36/17 A2992 RMK A01 T03570170  RH  033%=      5-min Rain = 0
KRO1 172312Z 16020KT 36/17 A2992 RMK A01 T03580169  RH  033%=      5-min Rain = 0
KRO1 172313Z 16018KT 36/17 A2992 RMK A01 T03570168  RH  033%=      5-min Rain = 0
KRO1 172314Z 15019KT 36/17 A2992 RMK A01 T03560168  RH  033%=      5-min Rain = 0
KRO1 172315Z 15016KT 36/17 A2992 RMK A01 T03560169  RH  033%=      5-min Rain = 0
KRO1 172316Z 15018KT 36/17 A2992 RMK A01 T03560168  RH  033%=      5-min Rain = 0
KRO1 172317Z 15017KT 36/17 A2991 RMK A01 T03560167  RH  033%=      5-min Rain = 0
KRO1 172318Z 15017KT 36/17 A2991 RMK A01 T03550166  RH  033%=      5-min Rain = 0
KRO1 172319Z 15017KT 36/17 A2992 RMK A01 T03550167  RH  033%=      5-min Rain = 0
KRO1 172320Z 15016KT 36/17 A2992 RMK A01 T03560170  RH  033%=      5-min Rain = 0
KRO1 172321Z 15016KT 36/17 A2992 RMK A01 T03560167  RH  033%=      5-min Rain = 0
KRO1 172322Z 16015KT 36/17 A2992 RMK A01 T03560170  RH  033%=      5-min Rain = 0
KRO1 172323Z 16014KT 36/17 A2992 RMK A01 T03560171  RH  034%=      5-min Rain = 0
KRO1 172324Z 16017KT 35/17 A2992 RMK A01 T03540171  RH  034%=      5-min Rain = 0
KRO1 172325Z 15020KT 35/17 A2992 RMK A01 T03530174  RH  035%=      5-min Rain = 0
KRO1 172326Z 14018KT 35/17 A2992 RMK A01 T03520172  RH  034%=      5-min Rain = 0
KRO1 172327Z 14016KT 35/17 A2992 RMK A01 T03520170  RH  034%=      5-min Rain = 0
KRO1 172328Z 14016KT 35/17 A2992 RMK A01 T03520173  RH  035%=      5-min Rain = 0
KRO1 172329Z 15014KT 35/18 A2992 RMK A01 T03540176  RH  035%=      5-min Rain = 0
KRO1 172330Z 15015KT 35/18 A2992 RMK A01 T03540178  RH  035%=      5-min Rain = 0
KRO1 172331Z 14014KT 35/18 A2992 RMK A01 T03540180  RH  036%=      5-min Rain = 0
KRO1 172332Z 15013KT 36/18 A2992 RMK A01 T03550181  RH  036%=      5-min Rain = 0
KRO1 172333Z 15014KT 36/18 A2992 RMK A01 T03560180  RH  036%=      5-min Rain = 0
KRO1 172334Z 16019KT 36/18 A2992 RMK A01 T03560181  RH  036%=      5-min Rain = 0
KRO1 172335Z 15017KT 36/18 A2992 RMK A01 T03550179  RH  035%=      5-min Rain = 0
KRO1 172336Z 16014KT 35/18 A2992 RMK A01 T03540179  RH  036%=      5-min Rain = 0
KRO1 172337Z 16014KT 35/18 A2991 RMK A01 T03520179  RH  036%=      5-min Rain = 0
KRO1 172338Z 15018KT 35/18 A2991 RMK A01 T03520178  RH  036%=      5-min Rain = 0
KRO1 172339Z 14014KT 35/18 A2991 RMK A01 T03510177  RH  036%=      5-min Rain = 0
KRO1 172340Z 15015KT 35/18 A2991 RMK A01 T03520179  RH  036%=      5-min Rain = 0
KRO1 172341Z 14017KT 35/18 A2991 RMK A01 T03530177  RH  035%=      5-min Rain = 0
KRO1 172342Z 15015KT 35/18 A2991 RMK A01 T03520177  RH  036%=      5-min Rain = 0
KRO1 172343Z 14020G25KT 35/18 A2991 RMK A01 T03520177  RH  036%=      5-min Rain = 0
KRO1 172344Z 15018KT 35/18 A2991 RMK A01 T03520177  RH  036%=      5-min Rain = 0
KRO1 172345Z 15020KT 35/18 A2991 RMK A01 T03520177  RH  035%=      5-min Rain = 0
KRO1 172346Z 15017KT 35/18 A2991 RMK A01 T03510176  RH  036%=      5-min Rain = 0
KRO1 172347Z 16018KT 35/18 A2991 RMK A01 T03510176  RH  036%=      5-min Rain = 0
KRO1 172348Z 16017KT 35/18 A2991 RMK A01 T03510177  RH  036%=      5-min Rain = 0
KRO1 172349Z 16017KT 35/18 A2991 RMK A01 T03510178  RH  036%=      5-min Rain = 0
KRO1 172350Z 15018KT 35/18 A2991 RMK A01 T03510178  RH  036%=      5-min Rain = 0
KRO1 172351Z 15018KT 35/18 A2991 RMK A01 T03490177  RH  036%=      5-min Rain = 0
KRO1 172352Z 15018KT 35/18 A2991 RMK A01 T03480176  RH  036%=      5-min Rain = 0
KRO1 172353Z 15019KT 35/17 A2991 RMK A01 T03480174  RH  036%=      5-min Rain = 0
KRO1 172354Z 15017KT 35/17 A2991 RMK A01 T03490174  RH  036%=      5-min Rain = 0
KRO1 172355Z 15018KT 35/17 A2991 RMK A01 T03490174  RH  035%=      5-min Rain = 0
KRO1 172356Z 14016KT 35/17 A2991 RMK A01 T03490174  RH  036%=      5-min Rain = 0
KRO1 172357Z 14019KT 35/18 A2991 RMK A01 T03490175  RH  036%=      5-min Rain = 0
KRO1 172358Z 14015KT 35/17 A2991 RMK A01 T03490174  RH  036%=      5-min Rain = 0
KRO1 172359Z 15016KT 35/18 A2991 RMK A01 T03490175  RH  036%=      5-min Rain = 0
KRO1 180000Z 16017KT 35/18 A2991 RMK A01 T03490175  RH  036%=      5-min Rain = 0
KRO1 180001Z 16016KT 35/18 A2991 RMK A01 T03490175  RH  036%=      5-min Rain = 0
KRO1 180002Z 16020KT 35/17 A2991 RMK A01 T03490173  RH  035%=      5-min Rain = 0
KRO1 180003Z 15019KT 35/17 A2991 RMK A01 T03490172  RH  035%=      5-min Rain = 0
KRO1 180004Z 15019KT 35/17 A2991 RMK A01 T03480172  RH  035%=      5-min Rain = 0
KRO1 180005Z 14018KT 35/17 A2991 RMK A01 T03480171  RH  035%=      5-min Rain = 0
KRO1 180006Z 15017KT 35/17 A2991 RMK A01 T03480170  RH  035%=      5-min Rain = 0
KRO1 180007Z 15020KT 35/18 A2991 RMK A01 T03480175  RH  036%=      5-min Rain = 0
KRO1 180008Z 16020KT 35/18 A2991 RMK A01 T03480177  RH  036%=      5-min Rain = 0
KRO1 180009Z 16019KT 35/18 A2991 RMK A01 T03460176  RH  037%=      5-min Rain = 0
KRO1 180010Z 16017KT 35/18 A2991 RMK A01 T03450177  RH  037%=      5-min Rain = 0
KRO1 180011Z 16016KT 35/18 A2991 RMK A01 T03450177  RH  037%=      5-min Rain = 0
KRO1 180012Z 15019KT 35/18 A2991 RMK A01 T03450177  RH  037%=      5-min Rain = 0
KRO1 180013Z 15017KT 35/18 A2991 RMK A01 T03450176  RH  037%=      5-min Rain = 0
KRO1 180014Z 15019KT 35/18 A2991 RMK A01 T03450175  RH  037%=      5-min Rain = 0
KRO1 180015Z 16017KT 35/18 A2991 RMK A01 T03450176  RH  037%=      5-min Rain = 0
KRO1 180016Z 15019KT 34/18 A2992 RMK A01 T03440177  RH  037%=      5-min Rain = 0
KRO1 180017Z 15018KT 34/18 A2992 RMK A01 T03440177  RH  037%=      5-min Rain = 0
KRO1 180018Z 15019KT 34/18 A2992 RMK A01 T03440177  RH  037%=      5-min Rain = 0
KRO1 180019Z 15016KT 34/18 A2992 RMK A01 T03430176  RH  037%=      5-min Rain = 0
KRO1 180020Z 15016KT 34/18 A2992 RMK A01 T03430177  RH  037%=      5-min Rain = 0
KRO1 180021Z 14015KT 34/18 A2992 RMK A01 T03430176  RH  037%=      5-min Rain = 0
KRO1 180022Z 13018KT 34/18 A2992 RMK A01 T03430176  RH  037%=      5-min Rain = 0
KRO1 180023Z 14021KT 34/18 A2991 RMK A01 T03430177  RH  037%=      5-min Rain = 0
KRO1 180024Z 17019KT 34/18 A2992 RMK A01 T03430179  RH  038%=      5-min Rain = 0
KRO1 180025Z 16018KT 34/18 A2992 RMK A01 T03430179  RH  038%=      5-min Rain = 0
KRO1 180026Z 16017KT 34/18 A2992 RMK A01 T03420179  RH  038%=      5-min Rain = 0
KRO1 180027Z 16018KT 34/18 A2992 RMK A01 T03420179  RH  038%=      5-min Rain = 0
KRO1 180028Z 16019KT 34/18 A2992 RMK A01 T03420178  RH  038%=      5-min Rain = 0
KRO1 180029Z 15017KT 34/18 A2992 RMK A01 T03410177  RH  038%=      5-min Rain = 0
KRO1 180030Z 16018KT 34/18 A2992 RMK A01 T03410177  RH  038%=      5-min Rain = 0
KRO1 180031Z 16016KT 34/18 A2992 RMK A01 T03410177  RH  038%=      5-min Rain = 0
KRO1 180032Z 16019KT 34/18 A2992 RMK A01 T03410178  RH  038%=      5-min Rain = 0
KRO1 180033Z 16016KT 34/18 A2992 RMK A01 T03410177  RH  038%=      5-min Rain = 0
KRO1 180034Z 15017KT 34/18 A2992 RMK A01 T03400177  RH  038%=      5-min Rain = 0
KRO1 180035Z 16016KT 34/18 A2992 RMK A01 T03400177  RH  038%=      5-min Rain = 0
KRO1 180036Z 15015KT 34/18 A2992 RMK A01 T03400178  RH  038%=      5-min Rain = 0
KRO1 180037Z 15015KT 34/18 A2992 RMK A01 T03400177  RH  038%=      5-min Rain = 0
KRO1 180038Z 15017KT 34/18 A2992 RMK A01 T03410178  RH  038%=      5-min Rain = 0
KRO1 180039Z 15016KT 34/18 A2992 RMK A01 T03400178  RH  038%=      5-min Rain = 0
KRO1 180040Z 15017KT 34/18 A2992 RMK A01 T03390179  RH  039%=      5-min Rain = 0
KRO1 180041Z 15016KT 34/18 A2992 RMK A01 T03390179  RH  039%=      5-min Rain = 0
KRO1 180042Z 15014KT 34/18 A2992 RMK A01 T03390180  RH  039%=      5-min Rain = 0
KRO1 180043Z 16013KT 34/18 A2992 RMK A01 T03390180  RH  039%=      5-min Rain = 0
KRO1 180044Z 15015KT 34/18 A2992 RMK A01 T03390181  RH  039%=      5-min Rain = 0
KRO1 180045Z 15013KT 34/18 A2992 RMK A01 T03390180  RH  039%=      5-min Rain = 0
KRO1 180046Z 15017KT 34/18 A2992 RMK A01 T03390180  RH  039%=      5-min Rain = 0
KRO1 180047Z 15016KT 34/18 A2992 RMK A01 T03390179  RH  039%=      5-min Rain = 0
KRO1 180048Z 15015KT 34/18 A2992 RMK A01 T03380178  RH  039%=      5-min Rain = 0
KRO1 180049Z 15019KT 34/18 A2992 RMK A01 T03370178  RH  039%=      5-min Rain = 0
KRO1 180050Z 15016KT 34/18 A2992 RMK A01 T03370177  RH  039%=      5-min Rain = 0
KRO1 180051Z 15017KT 34/18 A2992 RMK A01 T03370178  RH  039%=      5-min Rain = 0
KRO1 180052Z 16016KT 34/18 A2992 RMK A01 T03370177  RH  039%=      5-min Rain = 0
KRO1 180053Z 15014KT 34/18 A2992 RMK A01 T03370178  RH  039%=      5-min Rain = 0
KRO1 180054Z 15015KT 34/18 A2992 RMK A01 T03360178  RH  039%=      5-min Rain = 0
KRO1 180055Z 15017KT 34/18 A2992 RMK A01 T03360177  RH  039%=      5-min Rain = 0
KRO1 180056Z 15016KT 34/18 A2992 RMK A01 T03360177  RH  039%=      5-min Rain = 0
KRO1 180057Z 15015KT 34/18 A2992 RMK A01 T03350177  RH  039%=      5-min Rain = 0
KRO1 180058Z 16013KT 34/18 A2992 RMK A01 T03350178  RH  039%=      5-min Rain = 0
KRO1 180059Z 15014KT 34/18 A2992 RMK A01 T03350178  RH  039%=      5-min Rain = 0
KRO1 180100Z 15017KT 34/18 A2992 RMK A01 T03350178  RH  039%=      5-min Rain = 0
KRO1 180101Z 15015KT 34/18 A2992 RMK A01 T03350178  RH  039%=      5-min Rain = 0
KRO1 180102Z 15014KT 34/18 A2992 RMK A01 T03350178  RH  039%=      5-min Rain = 0
KRO1 180103Z 15014KT 33/18 A2992 RMK A01 T03340179  RH  040%=      5-min Rain = 0
KRO1 180104Z 16018KT 33/18 A2992 RMK A01 T03340178  RH  040%=      5-min Rain = 0
KRO1 180105Z 16017KT 34/18 A2992 RMK A01 T03350178  RH  039%=      5-min Rain = 0
KRO1 180106Z 15015KT 33/18 A2992 RMK A01 T03340178  RH  039%=      5-min Rain = 0
KRO1 180107Z 15017KT 33/18 A2992 RMK A01 T03340177  RH  039%=      5-min Rain = 0
KRO1 180108Z 15019KT 33/18 A2992 RMK A01 T03330176  RH  039%=      5-min Rain = 0
KRO1 180109Z 15016KT 33/18 A2992 RMK A01 T03330175  RH  039%=      5-min Rain = 0
KRO1 180110Z 15016KT 33/18 A2992 RMK A01 T03330175  RH  039%=      5-min Rain = 0
KRO1 180111Z 15018KT 33/18 A2992 RMK A01 T03320175  RH  039%=      5-min Rain = 0
KRO1 180112Z 15014KT 33/18 A2992 RMK A01 T03320175  RH  039%=      5-min Rain = 0
KRO1 180113Z 15016KT 33/18 A2992 RMK A01 T03320176  RH  040%=      5-min Rain = 0
KRO1 180114Z 16015KT 33/18 A2992 RMK A01 T03310176  RH  040%=      5-min Rain = 0
KRO1 180115Z 15018KT 33/18 A2992 RMK A01 T03310176  RH  040%=      5-min Rain = 0
KRO1 180116Z 15016KT 33/18 A2992 RMK A01 T03310176  RH  040%=      5-min Rain = 0
KRO1 180117Z 15015KT 33/18 A2992 RMK A01 T03310176  RH  040%=      5-min Rain = 0
KRO1 180118Z 15016KT 33/18 A2992 RMK A01 T03300176  RH  040%=      5-min Rain = 0
KRO1 180119Z 15015KT 33/18 A2992 RMK A01 T03300176  RH  040%=      5-min Rain = 0
KRO1 180120Z 15015KT 33/18 A2992 RMK A01 T03300175  RH  040%=      5-min Rain = 0
KRO1 180121Z 16015KT 33/18 A2992 RMK A01 T03300175  RH  040%=      5-min Rain = 0
KRO1 180122Z 15013KT 33/18 A2992 RMK A01 T03300176  RH  040%=      5-min Rain = 0
KRO1 180123Z 16013KT 33/18 A2993 RMK A01 T03290175  RH  040%=      5-min Rain = 0
KRO1 180124Z 15014KT 33/18 A2993 RMK A01 T03290176  RH  040%=      5-min Rain = 0
KRO1 180125Z 15016G21KT 33/18 A2993 RMK A01 T03290175  RH  040%=      5-min Rain = 0
KRO1 180126Z 15015KT 33/17 A2993 RMK A01 T03280173  RH  040%=      5-min Rain = 0
KRO1 180127Z 15017KT 33/17 A2993 RMK A01 T03280173  RH  040%=      5-min Rain = 0
KRO1 180128Z 16013KT 33/17 A2993 RMK A01 T03280173  RH  040%=      5-min Rain = 0
KRO1 180129Z 15013KT 33/17 A2993 RMK A01 T03280173  RH  040%=      5-min Rain = 0
KRO1 180130Z 16018KT 33/17 A2993 RMK A01 T03270172  RH  040%=      5-min Rain = 0
KRO1 180131Z 16015KT 33/17 A2993 RMK A01 T03270171  RH  039%=      5-min Rain = 0
KRO1 180132Z 16015KT 33/17 A2993 RMK A01 T03270171  RH  039%=      5-min Rain = 0
KRO1 180133Z 16014KT 33/17 A2993 RMK A01 T03270171  RH  039%=      5-min Rain = 0
KRO1 180134Z 15014KT 33/17 A2993 RMK A01 T03270171  RH  040%=      5-min Rain = 0
KRO1 180135Z 15015KT 33/17 A2993 RMK A01 T03260171  RH  040%=      5-min Rain = 0
KRO1 180136Z 15014KT 33/17 A2993 RMK A01 T03260171  RH  040%=      5-min Rain = 0
KRO1 180137Z 16014KT 33/17 A2993 RMK A01 T03250171  RH  040%=      5-min Rain = 0
KRO1 180138Z 15014KT 33/17 A2993 RMK A01 T03250171  RH  040%=      5-min Rain = 0
KRO1 180139Z 15013KT 33/17 A2993 RMK A01 T03250171  RH  040%=      5-min Rain = 0
KRO1 180140Z 15014KT 32/17 A2993 RMK A01 T03240171  RH  040%=      5-min Rain = 0
KRO1 180141Z 15013KT 32/17 A2993 RMK A01 T03240171  RH  040%=      5-min Rain = 0
KRO1 180142Z 16016KT 32/17 A2993 RMK A01 T03240171  RH  040%=      5-min Rain = 0
KRO1 180143Z 15013KT 32/17 A2993 RMK A01 T03240171  RH  040%=      5-min Rain = 0
KRO1 180144Z 15013KT 32/17 A2993 RMK A01 T03230172  RH  040%=      5-min Rain = 0
KRO1 180145Z 15016KT 32/17 A2993 RMK A01 T03230171  RH  040%=      5-min Rain = 0
KRO1 180146Z 15015KT 32/17 A2993 RMK A01 T03220170  RH  040%=      5-min Rain = 0
KRO1 180147Z 15013KT 32/17 A2993 RMK A01 T03230171  RH  040%=      5-min Rain = 0
KRO1 180148Z 15014KT 32/17 A2993 RMK A01 T03220171  RH  040%=      5-min Rain = 0
KRO1 180149Z 15013KT 32/17 A2993 RMK A01 T03220171  RH  040%=      5-min Rain = 0
KRO1 180150Z 15011KT 32/17 A2993 RMK A01 T03210171  RH  041%=      5-min Rain = 0
KRO1 180151Z 15013KT 32/17 A2993 RMK A01 T03200171  RH  041%=      5-min Rain = 0
KRO1 180152Z 15012KT 32/17 A2993 RMK A01 T03200171  RH  041%=      5-min Rain = 0
KRO1 180153Z 15013KT 32/17 A2993 RMK A01 T03200171  RH  041%=      5-min Rain = 0
KRO1 180154Z 15012KT 32/17 A2993 RMK A01 T03200171  RH  041%=      5-min Rain = 0
KRO1 180155Z 15013KT 32/17 A2993 RMK A01 T03190171  RH  041%=      5-min Rain = 0
KRO1 180156Z 15012KT 32/17 A2993 RMK A01 T03190171  RH  041%=      5-min Rain = 0
KRO1 180157Z 15011KT 32/17 A2993 RMK A01 T03190171  RH  041%=      5-min Rain = 0
KRO1 180158Z 15011KT 32/17 A2993 RMK A01 T03180172  RH  041%=      5-min Rain = 0
KRO1 180159Z 15012KT 32/17 A2993 RMK A01 T03180172  RH  042%=      5-min Rain = 0
KRO1 180200Z 15011KT 32/17 A2993 RMK A01 T03180172  RH  042%=      5-min Rain = 0
KRO1 180201Z 15011KT 32/17 A2993 RMK A01 T03170172  RH  042%=      5-min Rain = 0
KRO1 180202Z 15012KT 32/17 A2993 RMK A01 T03170173  RH  042%=      5-min Rain = 0
KRO1 180203Z 15011KT 32/17 A2993 RMK A01 T03170172  RH  042%=      5-min Rain = 0
KRO1 180204Z 15011KT 32/17 A2993 RMK A01 T03170172  RH  042%=      5-min Rain = 0
KRO1 180205Z 15011KT 32/17 A2993 RMK A01 T03170173  RH  042%=      5-min Rain = 0
KRO1 180206Z 15011KT 32/17 A2994 RMK A01 T03160173  RH  042%=      5-min Rain = 0
KRO1 180207Z 15012KT 32/17 A2994 RMK A01 T03170173  RH  042%=      5-min Rain = 0
KRO1 180208Z 15011KT 32/17 A2994 RMK A01 T03170173  RH  042%=      5-min Rain = 0
KRO1 180209Z 15011KT 32/17 A2994 RMK A01 T03160174  RH  042%=      5-min Rain = 0
KRO1 180210Z 15010KT 32/17 A2994 RMK A01 T03160174  RH  043%=      5-min Rain = 0
KRO1 180211Z 15010KT 32/17 A2994 RMK A01 T03150174  RH  043%=      5-min Rain = 0
KRO1 180212Z 15010KT 32/17 A2994 RMK A01 T03150174  RH  043%=      5-min Rain = 0
KRO1 180213Z 15010KT 31/17 A2994 RMK A01 T03140174  RH  043%=      5-min Rain = 0
KRO1 180214Z 15011KT 31/18 A2994 RMK A01 T03140175  RH  043%=      5-min Rain = 0
KRO1 180215Z 15010KT 31/18 A2994 RMK A01 T03140175  RH  044%=      5-min Rain = 0
KRO1 180216Z 15010KT 31/18 A2994 RMK A01 T03130175  RH  044%=      5-min Rain = 0
KRO1 180217Z 15009KT 31/18 A2994 RMK A01 T03130175  RH  044%=      5-min Rain = 0
KRO1 180218Z 15009KT 31/18 A2994 RMK A01 T03130176  RH  044%=      5-min Rain = 0
KRO1 180219Z 15010KT 31/18 A2994 RMK A01 T03120176  RH  044%=      5-min Rain = 0
KRO1 180220Z 15009KT 31/18 A2994 RMK A01 T03120176  RH  044%=      5-min Rain = 0
KRO1 180221Z 15009KT 31/18 A2994 RMK A01 T03120176  RH  044%=      5-min Rain = 0
KRO1 180222Z 15010KT 31/18 A2994 RMK A01 T03120176  RH  044%=      5-min Rain = 0
KRO1 180223Z 15009KT 31/18 A2994 RMK A01 T03110176  RH  045%=      5-min Rain = 0
KRO1 180224Z 15009KT 31/18 A2994 RMK A01 T03110176  RH  045%=      5-min Rain = 0
KRO1 180225Z 15010KT 31/18 A2994 RMK A01 T03100177  RH  045%=      5-min Rain = 0
KRO1 180226Z 15009KT 31/18 A2994 RMK A01 T03100177  RH  045%=      5-min Rain = 0
KRO1 180227Z 15010KT 31/18 A2994 RMK A01 T03100177  RH  045%=      5-min Rain = 0
KRO1 180228Z 15010KT 31/18 A2994 RMK A01 T03100177  RH  045%=      5-min Rain = 0
KRO1 180229Z 15009KT 31/18 A2994 RMK A01 T03100177  RH  045%=      5-min Rain = 0
KRO1 180230Z 15009KT 31/18 A2994 RMK A01 T03100177  RH  045%=      5-min Rain = 0
KRO1 180231Z 15010KT 31/18 A2994 RMK A01 T03100177  RH  045%=      5-min Rain = 0
KRO1 180232Z 15010KT 31/18 A2994 RMK A01 T03090178  RH  045%=      5-min Rain = 0
KRO1 180233Z 15010KT 31/18 A2995 RMK A01 T03090178  RH  046%=      5-min Rain = 0
KRO1 180234Z 15010KT 31/18 A2995 RMK A01 T03090178  RH  046%=      5-min Rain = 0
KRO1 180235Z 15009KT 31/18 A2995 RMK A01 T03090178  RH  046%=      5-min Rain = 0
KRO1 180236Z 15010KT 31/18 A2995 RMK A01 T03080178  RH  046%=      5-min Rain = 0
KRO1 180237Z 15010KT 31/18 A2995 RMK A01 T03080178  RH  046%=      5-min Rain = 0
KRO1 180238Z 15010KT 31/18 A2995 RMK A01 T03080178  RH  046%=      5-min Rain = 0
KRO1 180239Z 15010KT 31/18 A2995 RMK A01 T03080178  RH  046%=      5-min Rain = 0
KRO1 180240Z 15009KT 31/18 A2995 RMK A01 T03080178  RH  046%=      5-min Rain = 0
KRO1 180241Z 15009KT 31/18 A2995 RMK A01 T03080178  RH  046%=      5-min Rain = 0
KRO1 180242Z 15009KT 31/18 A2995 RMK A01 T03070179  RH  046%=      5-min Rain = 0
KRO1 180243Z 15009KT 31/18 A2995 RMK A01 T03060179  RH  046%=      5-min Rain = 0
KRO1 180244Z 15009KT 31/18 A2995 RMK A01 T03060178  RH  046%=      5-min Rain = 0
KRO1 180245Z 15009KT 31/18 A2995 RMK A01 T03060178  RH  047%=      5-min Rain = 0
KRO1 180246Z 15009KT 31/18 A2995 RMK A01 T03060178  RH  047%=      5-min Rain = 0
KRO1 180247Z 15009KT 31/18 A2995 RMK A01 T03060179  RH  047%=      5-min Rain = 0
KRO1 180248Z 15009KT 31/18 A2995 RMK A01 T03050179  RH  047%=      5-min Rain = 0
KRO1 180249Z 15009KT 31/18 A2995 RMK A01 T03050179  RH  047%=      5-min Rain = 0
KRO1 180250Z 15008KT 30/18 A2995 RMK A01 T03040179  RH  047%=      5-min Rain = 0
KRO1 180251Z 15009KT 30/18 A2995 RMK A01 T03040179  RH  047%=      5-min Rain = 0
KRO1 180252Z 15009KT 30/18 A2995 RMK A01 T03040178  RH  047%=      5-min Rain = 0
KRO1 180253Z 15010KT 30/18 A2995 RMK A01 T03040178  RH  047%=      5-min Rain = 0
KRO1 180254Z 15008KT 30/18 A2995 RMK A01 T03040178  RH  047%=      5-min Rain = 0
KRO1 180255Z 15009KT 30/18 A2995 RMK A01 T03040179  RH  047%=      5-min Rain = 0
KRO1 180256Z 15009KT 30/18 A2995 RMK A01 T03040179  RH  047%=      5-min Rain = 0
KRO1 180257Z 15009KT 30/18 A2995 RMK A01 T03030178  RH  047%=      5-min Rain = 0
KRO1 180258Z 15010KT 30/18 A2995 RMK A01 T03030179  RH  047%=      5-min Rain = 0
KRO1 180259Z 15009KT 30/18 A2995 RMK A01 T03030178  RH  047%=      5-min Rain = 0
KRO1 180300Z 15009KT 30/18 A2995 RMK A01 T03030178  RH  047%=      5-min Rain = 0
KRO1 180301Z 15009KT 30/18 A2995 RMK A01 T03030178  RH  047%=      5-min Rain = 0
KRO1 180302Z 15009KT 30/18 A2995 RMK A01 T03020179  RH  048%=      5-min Rain = 0
KRO1 180303Z 15010KT 30/18 A2995 RMK A01 T03020178  RH  048%=      5-min Rain = 0
KRO1 180304Z 15009KT 30/18 A2995 RMK A01 T03010178  RH  048%=      5-min Rain = 0
KRO1 180305Z 15010KT 30/18 A2995 RMK A01 T03020178  RH  048%=      5-min Rain = 0
KRO1 180306Z 15010KT 30/18 A2995 RMK A01 T03010178  RH  048%=      5-min Rain = 0
KRO1 180307Z 15010KT 30/18 A2995 RMK A01 T03020178  RH  048%=      5-min Rain = 0
KRO1 180308Z 15010KT 30/18 A2995 RMK A01 T03010178  RH  048%=      5-min Rain = 0
KRO1 180309Z 15009KT 30/18 A2995 RMK A01 T03010178  RH  048%=      5-min Rain = 0
KRO1 180310Z 15010KT 30/18 A2995 RMK A01 T03010178  RH  048%=      5-min Rain = 0
KRO1 180311Z 15010KT 30/18 A2995 RMK A01 T03010178  RH  048%=      5-min Rain = 0
KRO1 180312Z 15009KT 30/18 A2995 RMK A01 T03010178  RH  048%=      5-min Rain = 0
KRO1 180313Z 15009KT 30/18 A2995 RMK A01 T03000178  RH  048%=      5-min Rain = 0
KRO1 180314Z 15009KT 30/18 A2995 RMK A01 T03000178  RH  048%=      5-min Rain = 0
KRO1 180315Z 15009KT 30/18 A2995 RMK A01 T03000178  RH  048%=      5-min Rain = 0
KRO1 180316Z 15010KT 30/18 A2995 RMK A01 T03000178  RH  048%=      5-min Rain = 0
KRO1 180317Z 15010KT 30/18 A2995 RMK A01 T03000178  RH  048%=      5-min Rain = 0
KRO1 180318Z 15009KT 30/18 A2995 RMK A01 T03000178  RH  048%=      5-min Rain = 0
KRO1 180319Z 15010KT 30/18 A2995 RMK A01 T03000179  RH  048%=      5-min Rain = 0
KRO1 180320Z 15010KT 30/18 A2996 RMK A01 T02990178  RH  048%=      5-min Rain = 0
KRO1 180321Z 15009KT 30/18 A2996 RMK A01 T02990178  RH  048%=      5-min Rain = 0
KRO1 180322Z 15010KT 30/18 A2996 RMK A01 T02990178  RH  048%=      5-min Rain = 0
KRO1 180323Z 15010KT 30/18 A2996 RMK A01 T02990178  RH  048%=      5-min Rain = 0
KRO1 180324Z 15009KT 30/18 A2996 RMK A01 T02990178  RH  048%=      5-min Rain = 0
KRO1 180325Z 15010KT 30/18 A2996 RMK A01 T02990178  RH  048%=      5-min Rain = 0
KRO1 180326Z 15009KT 30/18 A2996 RMK A01 T02990178  RH  048%=      5-min Rain = 0
KRO1 180327Z 15009KT 30/18 A2996 RMK A01 T02990179  RH  049%=      5-min Rain = 0
KRO1 180328Z 15009KT 30/18 A2996 RMK A01 T02980178  RH  049%=      5-min Rain = 0
KRO1 180329Z 15010KT 30/18 A2996 RMK A01 T02980179  RH  049%=      5-min Rain = 0
KRO1 180330Z 15009KT 30/18 A2996 RMK A01 T02970178  RH  049%=      5-min Rain = 0
KRO1 180331Z 15010KT 30/18 A2996 RMK A01 T02970178  RH  049%=      5-min Rain = 0
KRO1 180332Z 15010KT 30/18 A2996 RMK A01 T02970178  RH  049%=      5-min Rain = 0
KRO1 180333Z 15010KT 30/18 A2996 RMK A01 T02970178  RH  049%=      5-min Rain = 0
KRO1 180334Z 15009KT 30/18 A2996 RMK A01 T02970178  RH  049%=      5-min Rain = 0
KRO1 180335Z 15009KT 30/18 A2996 RMK A01 T02970178  RH  049%=      5-min Rain = 0
KRO1 180336Z 15010KT 30/18 A2996 RMK A01 T02970178  RH  049%=      5-min Rain = 0
KRO1 180337Z 15010KT 30/18 A2996 RMK A01 T02960178  RH  049%=      5-min Rain = 0
KRO1 180338Z 15010KT 30/18 A2996 RMK A01 T02960178  RH  049%=      5-min Rain = 0
KRO1 180339Z 15010KT 30/18 A2996 RMK A01 T02960178  RH  049%=      5-min Rain = 0
KRO1 180340Z 15010KT 30/18 A2996 RMK A01 T02960178  RH  049%=      5-min Rain = 0
KRO1 180341Z 15011KT 30/18 A2996 RMK A01 T02950178  RH  049%=      5-min Rain = 0
KRO1 180342Z 15010KT 30/18 A2996 RMK A01 T02950178  RH  049%=      5-min Rain = 0
KRO1 180343Z 15011KT 30/18 A2996 RMK A01 T02960178  RH  049%=      5-min Rain = 0
KRO1 180344Z 15010KT 30/18 A2996 RMK A01 T02950178  RH  049%=      5-min Rain = 0
KRO1 180345Z 15011KT 30/18 A2996 RMK A01 T02950178  RH  049%=      5-min Rain = 0
KRO1 180346Z 15011KT 30/18 A2996 RMK A01 T02950178  RH  049%=      5-min Rain = 0
KRO1 180347Z 15011KT 30/18 A2996 RMK A01 T02950178  RH  049%=      5-min Rain = 0
KRO1 180348Z 15011KT 30/18 A2996 RMK A01 T02950178  RH  049%=      5-min Rain = 0
KRO1 180349Z 15011KT 30/18 A2996 RMK A01 T02950179  RH  049%=      5-min Rain = 0
KRO1 180350Z 15011KT 30/18 A2996 RMK A01 T02950178  RH  049%=      5-min Rain = 0
KRO1 180351Z 15012KT 30/18 A2996 RMK A01 T02950178  RH  049%=      5-min Rain = 0
KRO1 180352Z 16011KT 30/18 A2996 RMK A01 T02950178  RH  049%=      5-min Rain = 0
KRO1 180353Z 15013KT 30/18 A2996 RMK A01 T02950178  RH  049%=      5-min Rain = 0
KRO1 180354Z 15011KT 30/18 A2996 RMK A01 T02950177  RH  049%=      5-min Rain = 0
KRO1 180355Z 15011KT 30/18 A2996 RMK A01 T02950178  RH  049%=      5-min Rain = 0
KRO1 180356Z 15012KT 30/18 A2996 RMK A01 T02950178  RH  049%=      5-min Rain = 0
KRO1 180357Z 15012KT 30/18 A2996 RMK A01 T02950178  RH  049%=      5-min Rain = 0
KRO1 180358Z 15012KT 30/18 A2996 RMK A01 T02950178  RH  049%=      5-min Rain = 0
KRO1 180359Z 15012KT 30/18 A2996 RMK A01 T02950178  RH  049%=      5-min Rain = 0
KRO1 180400Z 15013KT 30/18 A2996 RMK A01 T02950177  RH  049%=      5-min Rain = 0
KRO1 180401Z 15012KT 30/18 A2996 RMK A01 T02950177  RH  049%=      5-min Rain = 0
KRO1 180402Z 15011KT 30/18 A2996 RMK A01 T02950178  RH  049%=      5-min Rain = 0
KRO1 180403Z 15011KT 30/18 A2996 RMK A01 T02950178  RH  049%=      5-min Rain = 0
KRO1 180404Z 15012KT 30/18 A2996 RMK A01 T02950178  RH  049%=      5-min Rain = 0
KRO1 180405Z 15012KT 30/18 A2996 RMK A01 T02950178  RH  049%=      5-min Rain = 0
KRO1 180406Z 15012KT 30/18 A2996 RMK A01 T02950177  RH  049%=      5-min Rain = 0
KRO1 180407Z 15013KT 30/18 A2996 RMK A01 T02950177  RH  049%=      5-min Rain = 0
KRO1 180408Z 15012KT 30/18 A2996 RMK A01 T02950177  RH  049%=      5-min Rain = 0
KRO1 180409Z 15014KT 30/18 A2996 RMK A01 T02950177  RH  049%=      5-min Rain = 0
KRO1 180410Z 15013KT 30/18 A2996 RMK A01 T02950177  RH  049%=      5-min Rain = 0
KRO1 180411Z 15014KT 30/18 A2996 RMK A01 T02950177  RH  049%=      5-min Rain = 0
KRO1 180412Z 15013KT 30/18 A2996 RMK A01 T02950177  RH  049%=      5-min Rain = 0
KRO1 180413Z 15012KT 30/18 A2996 RMK A01 T02950177  RH  049%=      5-min Rain = 0
KRO1 180414Z 15013KT 30/18 A2996 RMK A01 T02950177  RH  049%=      5-min Rain = 0
KRO1 180415Z 15011KT 30/18 A2996 RMK A01 T02950178  RH  049%=      5-min Rain = 0
KRO1 180416Z 15013KT 30/18 A2996 RMK A01 T02950178  RH  049%=      5-min Rain = 0
KRO1 180417Z 15013KT 30/18 A2996 RMK A01 T02950178  RH  049%=      5-min Rain = 0
KRO1 180418Z 15012KT 30/18 A2996 RMK A01 T02950178  RH  049%=      5-min Rain = 0
KRO1 180419Z 15012KT 29/18 A2996 RMK A01 T02940177  RH  049%=      5-min Rain = 0
KRO1 180420Z 15012KT 29/18 A2996 RMK A01 T02940177  RH  049%=      5-min Rain = 0
KRO1 180421Z 15012KT 29/18 A2996 RMK A01 T02940177  RH  049%=      5-min Rain = 0
KRO1 180422Z 16012KT 29/18 A2996 RMK A01 T02940177  RH  050%=      5-min Rain = 0
KRO1 180423Z 15011KT 29/18 A2996 RMK A01 T02940177  RH  050%=      5-min Rain = 0
KRO1 180424Z 15011KT 29/18 A2996 RMK A01 T02940178  RH  050%=      5-min Rain = 0
KRO1 180425Z 15012KT 29/18 A2996 RMK A01 T02930177  RH  050%=      5-min Rain = 0
KRO1 180426Z 15012KT 29/18 A2996 RMK A01 T02920177  RH  050%=      5-min Rain = 0
KRO1 180427Z 15012KT 29/18 A2996 RMK A01 T02930178  RH  050%=      5-min Rain = 0
KRO1 180428Z 15011KT 29/18 A2996 RMK A01 T02930178  RH  050%=      5-min Rain = 0
KRO1 180429Z 15011KT 29/18 A2996 RMK A01 T02920178  RH  050%=      5-min Rain = 0
KRO1 180430Z 15011KT 29/18 A2996 RMK A01 T02920178  RH  050%=      5-min Rain = 0
KRO1 180431Z 16012KT 29/18 A2996 RMK A01 T02920178  RH  050%=      5-min Rain = 0
KRO1 180432Z 15011KT 29/18 A2996 RMK A01 T02920178  RH  050%=      5-min Rain = 0
KRO1 180433Z 15012KT 29/18 A2996 RMK A01 T02920178  RH  050%=      5-min Rain = 0
KRO1 180434Z 15010KT 29/18 A2996 RMK A01 T02920178  RH  050%=      5-min Rain = 0
KRO1 180435Z 15012KT 29/18 A2996 RMK A01 T02910178  RH  050%=      5-min Rain = 0
KRO1 180436Z 16012KT 29/18 A2996 RMK A01 T02910178  RH  050%=      5-min Rain = 0
KRO1 180437Z 16012KT 29/18 A2996 RMK A01 T02910177  RH  050%=      5-min Rain = 0
KRO1 180438Z 16011KT 29/18 A2996 RMK A01 T02910177  RH  050%=      5-min Rain = 0
KRO1 180439Z 16011KT 29/18 A2996 RMK A01 T02910178  RH  050%=      5-min Rain = 0
KRO1 180440Z 16011KT 29/18 A2996 RMK A01 T02910178  RH  050%=      5-min Rain = 0
KRO1 180441Z 16010KT 29/18 A2996 RMK A01 T02910178  RH  051%=      5-min Rain = 0
KRO1 180442Z 15013KT 29/18 A2996 RMK A01 T02900178  RH  051%=      5-min Rain = 0
KRO1 180443Z 15012KT 29/18 A2996 RMK A01 T02900177  RH  051%=      5-min Rain = 0
KRO1 180444Z 15011KT 29/18 A2996 RMK A01 T02900177  RH  051%=      5-min Rain = 0
KRO1 180445Z 16013KT 29/18 A2996 RMK A01 T02900177  RH  051%=      5-min Rain = 0
KRO1 180446Z 15012KT 29/18 A2996 RMK A01 T02900177  RH  050%=      5-min Rain = 0
KRO1 180447Z 15012KT 29/18 A2996 RMK A01 T02900177  RH  050%=      5-min Rain = 0
KRO1 180448Z 15011KT 29/18 A2996 RMK A01 T02900177  RH  051%=      5-min Rain = 0
KRO1 180449Z 16011KT 29/18 A2996 RMK A01 T02900177  RH  051%=      5-min Rain = 0
KRO1 180450Z 16010KT 29/18 A2996 RMK A01 T02900178  RH  051%=      5-min Rain = 0
KRO1 180451Z 16010KT 29/18 A2996 RMK A01 T02890178  RH  051%=      5-min Rain = 0
KRO1 180452Z 16009KT 29/18 A2996 RMK A01 T02890178  RH  051%=      5-min Rain = 0
KRO1 180453Z 15010KT 29/18 A2996 RMK A01 T02880178  RH  051%=      5-min Rain = 0
KRO1 180454Z 15010KT 29/18 A2996 RMK A01 T02880178  RH  051%=      5-min Rain = 0
KRO1 180455Z 16011KT 29/18 A2996 RMK A01 T02880178  RH  051%=      5-min Rain = 0
KRO1 180456Z 15010KT 29/18 A2996 RMK A01 T02880177  RH  051%=      5-min Rain = 0
KRO1 180457Z 16010KT 29/18 A2996 RMK A01 T02880178  RH  051%=      5-min Rain = 0
KRO1 180458Z 16011KT 29/18 A2996 RMK A01 T02870177  RH  051%=      5-min Rain = 0
KRO1 180459Z 15012KT 29/18 A2996 RMK A01 T02880178  RH  051%=      5-min Rain = 0

Page generated in 0.085 seconds.